[{"header": {"dx": 0.06612293990616946, "dy": 0.0552356325346848, "nx": 98, "ny": 59, "la1": 35.046912555036876, "la2": 31.78801023549047, "lo1": -121.43107172385933, "lo2": -114.95102361305473, "refTime": "2026041006", "parameterCategory": 1, "parameterNumber": 2}, "data": [14.75, 14.75, 14.75, 14.75, 14.75, 14.75, 14.75, 14.75, 14.75, 14.75, 13.86, 11.62, 12.52, 11.18, 10.28, 10.73, 10.73, -10.73, 10.73, 10.28, -0.0, 5.21, 6.32, 7.67, 8.0, 8.63, 8.79, 8.4, 7.82, 7.06, 6.64, 6.73, 6.01, 4.74, -4.74, -5.21, -5.06, -3.2, 0.0, 0.0, 2.06, 5.46, 9.67, 11.6, 12.79, 13.99, 15.06, 16.79, 17.89, 14.39, 9.84, 9.08, 9.08, 8.85, 8.54, 7.96, 8.91, 9.48, 9.97, 10.85, 10.99, 10.73, 8.3, 5.8, 6.43, 8.73, 9.8, 10.36, 11.21, 11.42, 11.6, 11.36, 11.27, 11.14, 11.76, 11.87, 12.04, 13.09, 13.7, 12.52, -10.28, -9.54, -7.81, -6.32, -4.0, 0.0, 2.69, 6.01, 7.28, 8.17, 9.03, 9.65, 9.9, 10.28, 10.66, 10.66, 9.27, 9.2, 14.3, 14.75, 14.75, 14.75, 14.75, 14.75, 15.2, 15.2, 14.75, 14.75, 13.41, 12.96, 11.62, 10.73, 11.62, 11.18, 10.28, -11.62, -10.28, -9.83, -0.0, 7.27, 6.64, 7.15, 6.9, 7.6, 8.48, 8.0, 7.44, 6.32, 4.83, 4.12, 2.4, -1.03, -6.26, -7.15, -8.05, -8.05, 0.0, 0.0, 0.0, 5.2, 7.78, 10.12, 12.36, 14.46, 17.59, 18.59, 15.19, 10.18, 9.3, 9.3, 8.75, 8.22, 8.24, 8.54, 8.91, 9.48, 10.85, 10.85, 11.31, 10.37, 7.19, 5.11, 5.8, 7.78, 9.48, 10.02, 10.85, 11.04, 11.26, 11.36, 11.97, 12.18, 12.18, 12.3, 12.04, 13.09, 13.7, 12.52, -10.28, -9.54, -7.81, -6.32, -4.0, 0.0, 2.69, 6.01, 7.28, 8.17, 9.03, 9.65, 9.9, 10.28, 10.66, 10.66, 9.27, 9.2, 14.3, 14.75, 14.75, 14.75, 14.75, 14.75, 15.2, 15.2, 15.2, 14.3, 12.52, 10.28, 11.62, 11.62, 10.73, 10.73, 11.18, -7.9, -7.9, -7.9, -9.83, 10.73, 7.9, 7.27, 7.15, 7.07, 6.98, 7.15, 7.44, 4.96, 1.32, 0.79, 0.71, -0.0, -1.63, -8.06, -7.63, -8.94, 0.0, 0.0, 2.28, 5.46, 9.66, 12.64, 15.53, 17.99, 20.12, 15.25, 10.18, 8.58, 8.94, 9.3, 9.16, 8.15, 8.24, 8.83, 9.48, 10.02, 10.85, 11.16, 11.31, 9.84, 6.43, 4.55, 6.3, 7.19, 8.1, 8.67, 9.59, 9.96, 11.28, 12.39, 12.52, 12.72, 12.71, 12.31, 12.39, 13.96, 13.76, 13.41, -10.28, -8.91, -6.32, -6.32, -5.59, -3.32, 0.0, 4.71, 6.87, 8.06, 10.66, 10.66, 9.92, 9.92, 9.66, 9.3, 8.3, 8.24, 14.3, 14.3, 14.75, 14.75, 14.75, 14.75, 15.2, 15.2, 14.75, 13.86, 12.07, 10.73, 12.07, 11.18, 11.18, 11.18, 11.62, 0.0, -8.53, -10.0, -11.18, -10.28, 11.18, -0.0, 6.44, 6.95, 6.01, 6.98, 6.32, -0.0, -2.06, -1.47, -0.0, 1.75, 4.0, 6.64, -0.0, 11.18, 0.0, 3.25, 5.09, 10.41, 15.01, 17.39, 17.43, 15.36, 11.87, 8.59, 7.81, 9.09, 9.3, 9.62, 8.85, 8.15, 7.51, 8.54, 9.17, 10.02, 10.85, 11.58, 10.62, 9.17, 4.39, 3.96, 4.28, 5.99, 6.96, 7.63, 8.49, 9.83, 11.25, 12.65, 13.37, 12.21, 11.91, 12.07, 12.03, 13.41, 15.62, 13.41, -8.8, -9.33, -4.96, -6.01, -6.28, -5.36, 0.0, 4.37, 5.89, 9.62, 11.64, 10.63, 9.62, 9.3, 8.68, 8.43, 8.21, 8.17, 14.3, 14.3, 14.75, 14.75, 14.75, 14.75, 15.2, 15.2, 14.75, 13.86, 12.07, 10.73, 11.62, 11.18, 0.0, 0.0, 0.0, 0.0, -5.4, -6.7, -11.2, -10.73, 10.73, -0.0, 3.39, 6.2, 6.95, 7.33, 6.64, 3.8, -0.0, -4.4, -2.82, -0.0, 7.9, 10.84, 10.6, 12.96, 7.0, 3.59, 10.66, 17.43, 13.59, 11.5, 10.12, 8.53, 7.44, 7.9, 8.93, 9.27, 8.85, 8.01, 7.28, 8.15, 8.24, 9.17, 9.69, 10.59, 10.85, 11.58, 10.79, 7.19, 3.04, 3.47, 3.96, 5.25, 6.31, 6.94, 8.59, 10.12, 11.9, 13.27, 14.07, 13.92, 12.04, 11.18, 11.13, 11.33, 14.3, 13.86, -3.11, -5.21, -4.71, -6.63, -5.84, -4.37, 1.47, 5.36, 7.82, 10.12, 10.24, 10.01, 9.34, 7.64, 7.51, 8.15, 8.37, 8.48, 14.3, 14.3, 14.3, 14.75, 14.75, 14.75, 15.2, 14.75, 14.75, 13.86, 8.53, 7.27, 11.18, 10.73, 0.0, 0.0, 0.0, 0.0, 0.0, -3.04, -5.6, -3.82, 0.0, 12.96, 10.8, 10.8, 9.67, 10.0, 8.58, 8.58, 5.63, -0.0, -0.0, -0.0, 13.41, 13.41, 12.96, 13.86, 12.33, 0.0, -11.38, 4.52, 7.51, 7.82, 8.01, 6.63, 6.7, 7.24, 7.85, 8.53, 7.26, 7.73, 7.85, 8.85, 9.17, 9.76, 10.37, 10.37, 11.77, 11.99, 10.99, 3.96, 1.33, 1.98, 3.68, 5.25, 6.72, 7.43, 8.38, 10.25, 11.64, 12.86, 13.27, 14.79, 14.68, 13.44, 10.68, 9.6, 10.14, 12.07, -2.28, -1.75, -2.99, -4.75, -4.68, -0.94, 3.21, 8.01, 9.7, 9.36, 8.42, 9.26, 8.6, 6.45, 7.51, 8.4, 8.37, 9.55, 14.3, 14.3, 14.3, 14.75, 14.75, 14.75, 14.75, 14.75, 12.79, 12.39, 10.8, 6.95, 7.59, 7.59, 0.0, 0.0, 0.0, 0.0, 2.45, 0.0, 0.0, 0.0, 0.0, 4.95, 10.75, 13.99, 14.42, 14.3, 12.58, 8.58, 7.59, 5.63, 5.46, 8.8, 11.62, 13.86, 14.3, 13.86, 13.44, 13.41, -12.79, -9.17, -0.0, 4.24, 6.6, 5.27, 5.99, 5.99, 6.21, 6.94, 7.54, 6.76, 8.85, 8.85, 9.5, 10.55, 11.26, 11.26, 11.6, 12.04, 9.77, 1.98, 1.28, 2.16, 3.47, 5.99, 7.69, 8.54, 9.76, 11.31, 12.58, 12.74, 12.98, 14.42, 15.84, 15.84, 13.62, 10.28, 9.83, 9.74, 2.17, 0.0, -1.04, -2.39, -1.07, 1.77, 5.6, 8.05, 9.24, 8.3, 7.63, 8.09, 6.01, 7.6, 8.94, 8.0, 8.99, 9.6, 13.86, 14.3, 14.3, 14.3, 14.75, 14.75, 14.75, 13.99, 13.57, 12.72, 7.9, 4.4, 0.0, 7.9, 8.85, 5.0, 3.82, 4.1, 5.8, 7.44, 11.16, 12.72, 11.16, 7.0, 9.12, 10.75, 11.06, 13.39, 14.75, 9.48, 10.04, 10.8, 12.14, 12.52, 11.18, 12.27, 12.71, 11.02, 11.62, 11.62, -12.96, -13.86, -16.09, -12.01, -0.0, 3.47, 3.34, 5.78, 6.08, 7.78, 6.76, 7.85, 8.24, 9.42, 10.01, 10.19, 10.48, 10.48, 11.03, 10.8, 8.22, 1.84, -0.0, 2.52, 4.24, 7.34, 9.8, 10.99, 11.09, 12.22, 12.79, 13.25, 13.74, 14.28, 15.18, 15.03, 14.21, 11.87, 12.35, 14.3, 15.18, 2.16, 0.0, 0.0, 1.0, 4.36, 6.21, 7.63, 8.3, 8.07, 6.71, 4.56, 5.37, -0.0, 8.49, 7.28, 8.18, 8.43, 13.86, 14.3, 14.3, 14.3, 14.75, 14.75, 14.75, 14.31, 13.57, 10.79, 9.67, 6.45, 0.0, 4.1, 3.96, 3.96, 3.14, 3.25, 3.25, 9.48, 12.72, 13.41, 13.86, 13.88, 9.17, 7.9, 6.95, 6.2, 15.65, 14.3, 13.44, 14.9, 14.75, 13.86, 12.52, 11.62, 10.84, 10.0, 10.08, 10.28, -12.96, -14.75, -14.75, -12.52, -0.0, -0.0, -0.0, 5.8, 7.68, 7.82, 8.05, 7.41, 7.95, 8.53, 9.08, 8.82, 9.46, 9.46, 10.16, 10.4, 7.9, 2.95, 2.82, 4.08, 6.2, 9.31, 10.43, 10.99, 11.95, 12.07, 12.52, 13.41, 14.3, 14.75, 14.3, 13.41, 11.6, 11.96, 13.76, 16.02, 16.51, 6.4, 0.0, 0.74, 2.49, 4.47, 6.08, 7.26, 7.18, 6.95, 4.47, 4.43, -3.0, 8.05, 7.6, 6.91, 7.76, 7.41, 13.86, 13.86, 14.3, 14.3, 14.75, 14.75, 14.31, 14.31, 12.79, 11.6, 10.01, 9.17, 6.21, 4.24, 3.36, 2.63, 2.81, 2.43, 0.0, 0.0, 3.14, 5.8, 9.8, 11.44, 10.12, 6.97, 5.63, 3.39, 0.0, 10.12, 11.8, 13.23, 13.02, 13.86, 12.07, 11.18, 10.73, 9.39, 11.62, 12.96, -9.17, -12.96, 11.62, 10.28, -0.0, 2.71, 2.82, 5.4, 8.1, 6.87, 6.44, 6.92, 7.26, 7.72, 8.22, 7.65, 8.22, 9.3, 9.3, 9.86, 5.92, 3.82, 3.68, 5.15, 5.31, 8.31, 10.43, 10.79, 11.61, 11.62, 12.44, 13.36, 14.27, 14.75, 14.3, 12.96, 11.59, 11.49, 12.04, 14.75, 17.42, 16.54, 1.66, 0.89, 1.94, 3.81, 5.29, 6.31, 7.27, 6.32, 5.37, 8.49, 4.74, 4.22, 6.63, 7.41, 7.68, 6.32, 13.86, 13.86, 14.3, 14.75, 14.75, 14.75, 14.47, 14.47, 12.79, 11.99, 10.37, 9.8, 10.82, 8.66, 6.4, 5.31, 5.81, 2.8, 2.57, 2.58, 1.93, 3.78, 5.96, 6.6, 6.6, 5.8, 4.6, 4.6, 4.81, 9.8, 10.37, 10.37, 12.07, 11.18, 11.18, 11.71, 11.62, 11.28, 10.8, 13.86, 14.3, 9.48, 8.22, 10.0, 7.59, 4.6, 2.6, 2.19, 4.15, 3.07, 3.34, 5.4, 6.21, 6.67, 6.15, 6.41, 7.26, 8.53, 9.66, 8.22, 3.82, 3.29, 4.38, 4.66, 4.34, 6.6, 7.68, 9.21, 10.19, 11.45, 12.42, 12.91, 14.3, 14.3, 13.86, 13.83, 12.85, 11.56, 11.62, 13.01, 15.09, 16.07, 15.2, 2.54, 3.32, 3.2, 4.21, 5.46, 6.3, 5.1, 5.1, 6.17, 3.8, 4.02, 5.82, 7.27, 6.95, 5.59, 13.67, 13.86, 14.3, 14.75, 14.75, 14.75, 14.47, 14.47, 13.28, 12.45, 11.5, 11.88, 11.52, 11.9, 11.16, 9.62, 9.62, 9.6, 8.53, 8.25, 8.77, 10.47, 9.09, 11.38, 11.16, 10.79, 11.2, 6.7, 9.58, 9.55, 10.52, 11.62, 5.2, 9.83, 9.6, 9.97, 9.75, 5.4, -0.0, 13.41, 6.2, 3.25, 2.93, 6.2, 3.25, 1.84, -0.0, -0.0, -0.0, -0.0, 1.33, 2.52, 4.32, 4.32, 4.62, 5.57, 6.72, 8.53, 10.61, 5.7, 1.69, 3.56, 4.34, 2.24, 1.95, 3.69, 6.62, 7.54, 8.15, 9.48, 10.12, 10.81, 11.97, 12.75, 12.96, 13.38, 12.79, 11.87, 11.2, 11.99, 13.59, 13.33, 12.27, 10.43, 3.39, 4.83, 4.96, 5.21, 4.0, 4.6, 4.88, 3.77, 3.35, 3.77, 6.48, 8.31, 6.95, 4.42, 13.67, 13.86, 14.3, 14.75, 14.75, 14.75, 14.55, 14.11, 13.57, 13.15, 11.88, 12.27, 12.27, 12.65, 13.58, 13.59, 12.79, 11.99, 11.85, 12.45, 12.85, 13.19, 13.36, 13.41, 13.36, 13.37, 13.25, 13.28, 11.95, 9.72, 10.62, 11.46, 10.4, 11.18, 10.28, 6.95, -0.0, -0.0, -8.22, -0.0, 3.96, 3.96, 2.93, 3.25, -0.0, -0.0, -0.0, -0.0, -0.0, -0.0, -1.47, -0.0, 1.84, 1.93, 2.82, 2.93, 6.44, 10.18, 10.62, 2.99, -0.0, 2.04, 3.12, -0.0, -0.0, -0.0, 2.56, 5.64, 6.78, 8.4, 10.27, 10.54, 10.66, 10.32, 12.03, 12.47, 12.96, 12.07, 12.52, 12.07, 10.73, 11.62, 12.52, 13.41, 8.85, 8.85, 7.59, 5.9, 5.9, 5.1, 4.96, 3.14, 2.4, 4.12, 6.7, 8.97, 7.74, 4.47, 13.67, 13.67, 13.86, 14.3, 14.75, 14.3, 14.3, 14.11, 14.11, 13.57, 13.57, 12.79, 13.19, 13.2, 13.97, 14.39, 14.71, 14.11, 13.86, 13.88, 14.14, 14.27, 14.75, 15.65, 15.65, 15.54, 14.21, 14.11, 13.53, 12.62, 11.53, 11.55, 12.07, 10.73, 10.28, 4.4, 4.2, 4.6, -0.0, 7.59, 8.22, 7.9, 7.9, 5.0, -0.0, -0.0, -0.0, -0.0, -4.8, -5.95, -4.4, -7.59, 13.41, 13.86, 12.52, -11.62, -0.0, 10.8, 13.09, 3.65, -4.24, -0.0, -0.0, -0.0, -1.98, -2.16, -0.0, 1.98, 5.27, 7.36, 9.16, 10.54, 10.28, 10.25, 9.8, 11.18, 9.6, 7.27, 7.87, 8.8, 9.83, 10.08, 12.22, 13.96, 12.14, 11.99, 12.04, 8.93, 7.44, 6.8, 6.64, 3.91, 2.51, 4.12, 6.79, 8.22, 7.47, 5.37, 13.67, 13.67, 13.67, 14.3, 14.3, 14.3, 14.3, 14.16, 14.16, 13.75, 13.75, 13.56, 13.56, 13.97, 13.97, 14.79, 15.11, 15.36, 15.53, 15.18, 15.02, 15.17, 15.62, 16.09, 16.09, 16.51, 16.07, 15.56, 15.12, 14.59, 13.79, 12.5, 12.07, 10.73, 10.28, 8.8, 7.27, 5.21, 7.9, 9.2, 10.73, 11.62, 10.73, 10.73, 4.2, 2.83, -0.0, -0.0, -4.0, -6.95, -7.27, 10.28, 0.0, 8.49, 8.49, -8.05, 0.0, 9.33, 12.48, 8.85, -4.15, -3.68, -2.71, -2.71, -2.71, -4.8, -5.0, -0.0, 2.6, 7.26, 8.22, 10.41, 10.95, 10.6, 10.28, 9.33, 6.42, 6.69, 8.23, 9.77, 10.84, 11.18, 10.65, 10.32, 8.03, 11.2, 12.72, 10.84, 9.11, 8.72, 9.13, 6.63, 3.97, 4.42, 5.59, 6.01, 5.69, 5.69, 13.72, 13.72, 13.72, 14.3, 14.3, 14.3, 14.3, 14.3, 14.16, 14.16, 14.18, 14.18, 13.56, 13.97, 14.38, 15.07, 15.69, 16.27, 16.39, 16.05, 15.91, 15.93, 16.06, 16.54, 16.54, 16.54, 16.52, 16.07, 15.63, 15.18, 15.18, 15.18, 13.86, 11.62, 10.28, 8.0, 5.46, 5.9, 10.0, 10.73, 10.28, 10.73, 10.73, 6.95, 6.64, -0.0, -0.0, -0.0, -0.0, -0.0, -8.49, 8.49, 8.49, 8.49, 8.05, 8.05, 3.8, 8.18, 11.62, 6.45, -0.0, -0.0, -0.0, -0.0, -4.2, -8.4, -7.6, -0.0, 2.49, 6.7, 8.99, 10.25, 12.52, 11.59, 11.09, 7.9, 5.86, 9.57, 10.63, 10.82, 10.62, 11.2, 11.3, 11.62, 8.93, 4.2, 7.9, 8.43, 7.67, 7.67, 8.4, 5.06, 5.37, 6.55, 7.15, 6.79, 6.52, 6.52, 13.72, 13.72, 14.16, 13.72, 13.86, 14.3, 14.3, 14.75, 14.16, 14.16, 14.6, 14.18, 14.61, 14.61, 14.65, 14.65, 14.84, 15.69, 16.27, 16.39, 16.31, 15.93, 16.06, 16.09, 16.09, 16.09, 16.09, 16.09, 16.09, 16.54, 16.99, 16.99, 16.09, 14.3, 8.94, 8.48, 7.81, 10.18, 10.28, 10.28, 10.18, 8.94, 9.83, 6.01, 6.64, -0.0, -0.0, -0.0, -0.0, -0.0, -0.0, -0.0, 6.64, 8.4, 8.4, 9.39, 9.83, 10.28, 7.9, 3.68, 3.53, 7.27, 6.95, 8.4, 6.64, -0.0, 8.94, -6.01, 4.2, 10.08, 10.73, 10.43, 11.77, 9.97, 11.62, 1.61, 5.3, 10.11, 11.83, 11.68, 11.8, 11.53, 11.77, 11.2, 11.28, 3.11, 3.8, 4.37, 6.01, 6.91, 7.64, 6.44, 6.08, 6.52, 8.23, 7.64, 7.81, 7.81, 13.72, 13.72, 14.16, 14.16, 13.86, 13.86, 14.3, 14.3, 14.75, 14.64, 14.64, 15.08, 14.75, 14.75, 14.75, 14.75, 14.84, 15.27, 16.22, 16.27, 15.87, 15.91, 15.49, 15.2, 15.65, 16.09, 16.52, 16.52, 16.52, 17.35, 17.35, 17.86, 17.88, 16.09, 12.47, 8.49, 8.94, 9.97, 10.52, 9.97, 8.8, 9.39, 8.49, 8.49, 6.32, 4.2, 2.83, 4.0, 4.2, 4.2, 4.2, 6.95, 6.95, 6.95, 8.18, 9.33, 9.33, 7.27, 5.95, 6.2, 7.9, 8.55, 9.33, 8.91, 8.91, 6.01, 3.6, 0.0, 3.11, 9.3, 12.08, 11.61, 12.18, 13.99, 11.38, 3.9, 8.05, 11.86, 13.39, 13.42, 12.99, 12.99, 13.15, 12.22, 11.18, 0.0, 0.0, 3.15, 4.71, 7.27, 7.68, 6.79, 5.37, 6.32, 8.37, 8.18, 7.81, 7.81, 13.32, 13.72, 13.72, 14.16, 13.72, 13.86, 14.3, 14.3, 14.75, 14.75, 14.64, 15.08, 15.53, 15.18, 14.75, 16.12, 14.31, 15.18, 15.55, 15.12, 15.43, 15.68, 15.18, 16.15, 15.12, 16.41, 13.72, 16.71, 17.15, 15.82, 17.17, 17.76, 17.85, 17.43, 15.65, 12.48, 9.54, 8.55, 9.21, 10.0, 9.75, 10.28, 10.28, 8.8, 6.95, 6.95, 5.46, 6.64, 6.64, 6.64, 6.95, 6.95, 6.95, 6.95, 6.95, 7.27, 8.18, 8.93, 9.3, 9.3, 10.18, 9.75, 9.33, 8.06, 6.32, -0.0, -0.0, 8.94, 6.95, 10.04, 13.79, 15.54, 18.55, 18.71, 17.11, 15.11, 15.18, 15.15, 15.53, 15.41, 14.27, 14.3, 13.86, 12.52, 11.62, 5.7, 0.0, 3.53, 2.6, 4.8, 6.95, 7.51, 6.32, 5.72, 6.95, 8.18, 8.03, 8.03, 13.32, 13.32, 13.72, 13.75, 13.75, 13.75, 14.3, 14.3, 14.75, 14.75, 14.75, 15.08, 15.53, 15.53, 15.18, 14.75, 14.31, 14.31, 15.43, 15.05, 16.58, 15.12, 14.39, 15.59, 15.11, 15.84, 15.69, 15.38, 16.33, 16.61, 17.26, 17.39, 17.4, 17.43, 16.99, 15.16, 12.83, 11.36, 10.02, 8.38, 8.9, 9.39, 9.39, 9.16, 8.48, 9.6, 8.8, 8.8, 7.81, 7.81, 6.64, 6.64, 6.64, 5.21, 4.96, 6.64, 7.59, 7.87, 9.75, 10.41, 10.28, 9.83, 9.83, 9.39, -0.0, -2.69, -2.83, -0.0, 9.97, 11.35, 12.82, 15.1, 18.88, 19.73, 18.76, 16.73, 14.61, 13.33, 14.93, 14.97, 15.08, 15.17, 14.58, 13.15, 11.95, 10.96, 10.28, 9.75, 11.18, 10.73, 8.93, 9.97, 8.93, 6.95, 5.86, 7.27, 8.03, 8.03, 13.44, 13.44, 13.44, 13.75, 13.75, 13.75, 13.75, 14.3, 14.75, 15.2, 14.75, 15.2, 15.53, 15.55, 15.55, 15.27, 14.4, 13.81, 11.6, 14.23, 15.91, 15.36, 15.11, 14.65, 15.42, 16.12, 15.78, 16.66, 17.26, 17.84, 17.88, 17.43, 17.43, 17.43, 16.99, 16.54, 14.75, 12.94, 11.59, 10.26, 9.36, 9.83, 9.83, 9.7, 9.06, 10.18, 9.13, 8.8, 8.4, 8.4, 8.48, 8.0, 6.32, 5.21, 5.46, 5.36, 6.42, 7.27, 9.6, 9.83, 9.83, 9.83, 9.83, 6.95, -0.0, -2.83, -2.97, -0.0, 4.8, 7.56, 9.17, 12.65, 17.38, 19.69, 18.7, 15.19, 10.94, 10.89, 11.79, 13.42, 14.93, 15.38, 15.07, 14.26, 13.41, 11.62, 10.52, 9.13, 10.04, 10.18, 9.26, 10.87, 10.87, 8.18, 5.86, 6.64, 7.33, 7.33, 13.44, 13.44, 13.44, 13.44, 13.75, 13.75, 13.75, 14.19, 14.75, 15.2, 15.2, 15.2, 15.2, 15.55, 15.55, 15.27, 14.84, 13.99, 13.7, 15.06, 16.12, 15.84, 15.41, 15.12, 16.24, 17.28, 17.14, 16.41, 16.51, 16.99, 17.43, 17.43, 17.43, 17.43, 16.99, 16.99, 15.65, 13.86, 12.52, 11.18, 10.28, 9.83, 9.36, 9.26, 8.63, 7.47, 9.55, 9.54, 9.11, 8.67, 8.06, 8.06, 6.01, 2.83, 4.96, 4.4, 3.87, 4.8, 7.59, 9.83, 4.0, 4.2, 9.39, -0.0, -0.0, -2.28, -1.84, -0.0, -0.0, -0.0, 3.32, 9.8, 15.12, 17.81, 8.02, 7.03, 9.18, 9.32, 9.5, 9.5, 11.95, 13.64, 14.9, 14.27, 13.86, 11.62, 10.28, 9.39, 9.39, 11.18, 10.84, 10.4, 10.16, 7.76, 6.79, 6.01, 7.15, 7.15, 13.44, 13.44, 13.44, 13.44, 13.44, 13.75, 14.19, 14.22, 14.66, 15.2, 15.2, 15.2, 15.65, 15.65, 15.55, 15.57, 14.9, 14.47, 14.66, 15.69, 16.48, 15.61, 14.75, 14.75, 16.12, 17.1, 17.57, 17.3, 16.86, 16.06, 16.51, 16.54, 16.54, 16.54, 16.54, 16.54, 16.09, 14.75, 12.94, 11.6, 10.7, 10.25, 9.7, 8.8, 7.76, 7.06, 9.64, 9.11, 8.67, 8.24, 7.2, 7.07, 6.01, 2.69, 2.83, 2.17, -0.0, 2.82, 6.7, 7.44, 0.0, 0.0, 9.39, -0.0, -0.0, -1.54, -0.0, -0.0, -0.0, -2.28, -7.9, 6.94, 18.21, 16.66, 0.0, 0.0, 4.04, 6.6, 8.09, 8.65, 9.23, 11.25, 12.39, 13.05, 13.5, 11.91, 10.23, 9.16, 9.55, 11.03, 11.96, 10.0, 8.72, 7.67, 7.07, 7.07, 7.6, 7.6, 13.44, 13.44, 13.44, 13.44, 13.44, 13.44, 13.77, 14.22, 14.66, 15.2, 15.2, 15.65, 15.65, 15.65, 15.65, 15.57, 15.57, 14.47, 15.09, 15.53, 16.05, 16.48, 15.61, 14.37, 14.81, 16.17, 17.1, 17.3, 17.3, 16.86, 16.06, 16.06, 16.09, 16.09, 16.09, 16.09, 16.09, 15.17, 13.38, 11.53, 10.19, 9.72, 10.14, 10.14, 8.63, 7.45, 9.83, 9.39, 8.67, 8.0, 8.0, 7.6, 7.07, 6.01, 2.69, -0.0, -0.0, -0.0, 7.27, 8.82, 8.49, -6.01, -7.6, -1.67, -1.47, -0.0, -0.0, 1.93, -0.0, -3.11, -10.28, 14.13, 17.88, 18.68, 17.02, 10.12, 0.0, 3.04, 6.4, 5.9, 7.0, 8.58, 10.15, 10.55, 11.04, 10.2, 9.77, 8.8, 8.21, 9.29, 8.99, 8.91, 8.4, 6.32, 6.01, 7.07, 8.0, 8.0, 12.98, 12.98, 12.98, 13.44, 13.44, 13.44, 13.53, 14.22, 14.66, 15.11, 15.2, 15.2, 15.65, 15.65, 15.65, 15.57, 15.57, 14.95, 14.95, 15.87, 15.61, 16.48, 16.48, 16.12, 15.25, 15.3, 16.84, 17.3, 17.3, 16.86, 16.95, 16.51, 15.62, 15.65, 16.09, 16.09, 16.09, 15.65, 14.28, 11.98, 10.19, 9.74, 9.72, 10.14, 9.8, 9.36, 8.05, 8.46, 8.77, 9.24, 8.63, 9.75, 7.6, 6.7, 6.01, 2.69, -0.0, -0.0, 6.32, 9.21, 9.83, 7.6, -6.32, -1.84, -0.0, -0.0, -0.0, -0.0, -0.0, 10.28, 6.71, 11.6, 16.5, 17.72, 18.78, 18.65, 18.08, 15.77, 6.6, 5.4, 5.63, 7.93, 9.58, 10.75, 10.3, 9.16, 8.55, 7.58, 8.3, 6.32, 6.95, 9.33, 9.83, 8.91, 4.96, 6.32, 7.44, 7.44, 12.98, 12.98, 12.98, 12.98, 13.44, 13.53, 13.53, 13.96, 14.66, 14.66, 15.11, 15.2, 15.65, 15.65, 15.65, 15.65, 15.58, 15.58, 15.58, 15.43, 15.43, 15.61, 16.48, 16.55, 16.12, 15.74, 15.93, 16.84, 17.28, 17.28, 16.84, 16.95, 16.5, 16.51, 16.09, 16.09, 16.09, 16.09, 15.65, 13.39, 11.09, 10.19, 9.74, 9.81, 10.25, 10.28, 9.83, 8.46, 8.91, 9.26, 9.26, 8.36, 9.7, 8.24, 7.07, 6.01, 3.6, 5.69, 8.05, 8.94, 9.83, 10.28, 6.32, -0.0, -0.0, -0.0, -0.0, -0.0, -0.0, 7.27, 7.59, 11.6, 13.38, 16.97, 17.91, 17.9, 18.78, 18.59, 13.65, 4.65, 4.81, 7.16, 8.76, 9.73, 8.53, 8.47, 8.21, 7.6, 8.67, 3.8, 6.64, 8.99, 10.28, 10.28, 5.46, 0.0, 8.4, 8.4, 12.98, 12.98, 12.98, 13.15, 13.15, 13.53, 13.53, 13.53, 13.96, 14.66, 15.12, 15.2, 15.65, 15.2, 15.65, 15.65, 15.65, 15.58, 15.58, 15.59, 15.43, 15.43, 15.87, 16.31, 16.12, 16.35, 15.93, 16.39, 16.84, 16.84, 16.84, 16.95, 16.95, 16.95, 16.5, 16.5, 16.54, 16.54, 16.54, 15.65, 13.86, 12.07, 10.71, 9.81, 10.26, 10.28, 10.28, 9.39, 8.94, 8.91, 8.91, 8.91, 8.05, 7.6, 8.05, 7.21, 7.2, 5.37, 5.06, 7.6, 9.39, 9.39, 10.41, 4.0, -0.0, 1.84, 2.1, -0.0, -0.0, 9.2, 10.84, 10.68, 12.14, 13.83, 14.4, 15.1, 17.96, 17.97, 15.91, 3.34, 3.19, 6.09, 7.25, 8.01, 7.44, 8.27, 8.06, 7.6, 8.24, 7.44, 8.94, 10.28, 11.28, 11.53, 9.3, 0.0, 10.73, 10.73, 12.98, 12.98, 13.15, 13.15, 13.15, 13.15, 13.53, 13.53, 13.96, 14.23, 14.68, 15.12, 15.2, 15.2, 15.2, 15.2, 15.65, 15.65, 15.59, 15.59, 15.59, 15.43, 15.43, 15.43, 15.91, 15.91, 15.91, 15.93, 16.37, 16.5, 16.5, 16.5, 16.95, 16.94, 16.94, 16.5, 16.5, 16.95, 16.99, 16.09, 14.75, 12.96, 11.15, 9.81, 10.19, 9.75, 10.28, 9.83, 8.94, 8.94, 8.94, 8.49, 8.49, 7.6, 7.15, 7.6, 7.6, 7.6, 5.06, -0.0, 8.05, 8.94, 9.54, 4.2, 1.84, 2.19, 2.6, 4.6, 9.83, 10.28, 11.18, 11.71, 11.76, 11.76, 12.81, 14.28, 16.52, 16.54, 13.86, 4.15, 0.75, 4.74, 7.28, 7.44, 7.36, 7.73, 7.27, 7.6, 9.21, 9.83, 10.08, 10.6, 12.07, 12.37, 12.52, 12.07, 11.62, 11.62, 12.98, 12.98, 13.15, 13.15, 13.15, 13.15, 13.15, 13.96, 13.96, 14.03, 14.68, 15.12, 15.57, 15.65, 15.65, 15.2, 15.2, 15.2, 15.2, 15.15, 15.59, 15.59, 15.59, 15.59, 15.46, 15.6, 15.6, 16.05, 16.5, 16.5, 16.5, 16.5, 16.5, 16.5, 16.5, 16.5, 16.5, 16.94, 16.99, 16.54, 15.65, 13.41, 11.62, 9.83, 9.34, 9.62, 10.7, 11.46, 11.13, 9.26, 8.82, 8.82, 8.46, 8.01, 6.71, 6.71, 7.6, 7.6, 7.15, 7.6, 7.6, 8.94, 9.39, 2.97, -0.0, 1.69, 3.39, 4.6, 8.8, 10.28, 11.18, 12.44, 12.37, 11.77, 11.64, 13.76, 15.03, 14.42, 13.83, 11.84, 0.0, 2.87, 6.56, 7.1, 7.36, 7.18, 6.95, 8.03, 8.93, 9.3, 9.58, 10.79, 11.98, 12.96, 13.19, 12.58, 11.45, 11.45, 13.15, 13.15, 13.15, 13.15, 13.15, 13.15, 13.15, 13.96, 13.96, 14.03, 14.03, 15.12, 15.12, 15.65, 16.09, 15.65, 15.2, 15.2, 15.2, 15.2, 15.59, 15.59, 15.59, 15.59, 15.59, 15.6, 15.15, 15.6, 16.05, 16.05, 16.05, 16.05, 16.05, 16.05, 16.37, 16.5, 16.5, 16.49, 16.94, 16.99, 16.09, 14.3, 12.52, 9.83, 8.05, 9.79, 12.07, 13.23, 12.56, 11.5, 10.6, 8.56, 8.24, 7.48, 6.67, 6.66, 7.08, 7.06, 7.6, 7.15, 7.15, 8.67, 8.49, -0.0, -0.0, -0.0, -0.0, 5.95, 8.4, 9.54, 9.58, 11.78, 12.96, 13.76, 13.43, 14.13, 14.13, 12.65, 13.57, 13.86, 10.73, 2.25, 4.58, 7.1, 7.59, 8.97, 9.48, 9.17, 9.5, 9.62, 10.8, 12.52, 12.04, 12.96, 12.75, 12.18, 11.62, 11.62, 12.72, 12.72, 13.15, 13.15, 13.15, 13.15, 13.15, 13.57, 14.03, 14.47, 14.47, 14.03, 15.14, 15.14, 15.65, 15.65, 15.65, 15.65, 15.65, 15.65, 15.65, 15.65, 15.65, 15.59, 15.59, 15.6, 15.15, 14.71, 15.15, 15.61, 15.93, 15.49, 15.49, 15.49, 15.93, 15.93, 16.49, 16.49, 16.49, 16.94, 16.49, 15.2, 12.96, 10.73, 8.9, 10.08, 12.75, 14.26, 14.19, 13.28, 11.53, 9.16, 6.55, 6.42, 5.67, 5.32, 7.1, 7.52, 7.5, 7.15, 6.79, 8.06, 8.49, 4.0, -0.0, -0.0, -3.8, 6.95, 10.28, 10.08, 7.87, 10.18, 12.52, 14.73, 17.42, 16.44, 14.74, 11.9, 12.18, 15.23, 16.22, 10.76, 5.34, 6.8, 8.68, 10.15, 10.61, 11.44, 10.65, 12.04, 12.96, 11.6, 11.92, 11.62, 12.51, 12.18, 11.39, 11.39, 12.72, 12.72, 12.72, 13.15, 13.15, 13.15, 13.15, 13.57, 14.03, 14.47, 14.47, 14.47, 14.69, 15.58, 15.58, 15.65, 15.65, 16.09, 16.09, 16.09, 16.09, 16.09, 15.65, 15.65, 15.59, 15.59, 15.15, 14.26, 16.09, 14.71, 15.46, 15.91, 15.91, 15.46, 15.46, 15.91, 15.91, 16.49, 16.49, 16.49, 16.49, 15.6, 13.82, 11.14, 10.16, 10.75, 12.46, 14.71, 13.86, 12.52, 10.28, 8.05, 7.12, 6.66, 5.77, 4.34, 5.31, 7.08, 7.5, 7.06, 6.36, 7.6, 7.6, 6.01, 4.0, -0.0, -0.0, 0.0, 9.2, 10.18, 9.54, -0.0, 12.52, 15.2, 20.1, 21.33, 13.99, 8.85, 10.03, 12.64, 15.96, 16.54, 14.03, 10.19, 10.68, 11.22, 12.01, 12.29, 11.9, 12.71, 12.27, 11.87, 11.5, 11.62, 11.76, 11.87, 11.34, 11.34, 12.72, 12.72, 12.72, 13.15, 13.15, 13.15, 13.15, 13.57, 14.03, 14.47, 14.47, 14.47, 14.51, 14.69, 15.58, 15.58, 15.65, 15.65, 15.65, 16.09, 16.09, 16.09, 16.09, 15.65, 15.15, 15.15, 15.15, 14.26, 13.7, 15.57, 14.55, 15.43, 15.87, 15.91, 15.91, 15.91, 15.91, 16.31, 16.48, 16.48, 16.48, 16.04, 14.26, 12.03, 10.7, 11.51, 12.83, 13.82, 13.81, 11.57, 9.35, 8.94, 8.94, 8.01, 7.11, 6.26, 5.81, 5.29, 6.26, 6.26, 5.81, 6.8, 6.32, 5.69, 3.8, -0.0, -0.0, 8.49, 8.18, 10.41, 9.97, 3.39, 11.62, 13.28, 19.06, 25.02, 14.55, 4.48, 3.82, 10.62, 13.99, 15.91, 15.99, 16.12, 15.77, 16.2, 16.2, 14.36, 13.39, 12.96, 12.39, 11.09, 11.3, 11.99, 12.14, 11.76, 11.03, 11.03, 12.72, 12.72, 12.72, 12.72, 13.15, 13.15, 13.15, 13.57, 13.7, 14.47, 14.47, 14.9, 14.51, 14.69, 15.14, 15.58, 15.58, 15.65, 15.65, 16.09, 16.09, 16.54, 16.09, 16.09, 15.15, 15.15, 15.15, 14.58, 14.58, 14.6, 14.58, 14.99, 15.43, 15.43, 15.87, 15.87, 15.87, 15.87, 16.31, 16.48, 16.48, 16.48, 15.15, 12.93, 11.59, 11.59, 12.48, 13.82, 13.81, 12.02, 9.68, 9.24, 9.35, 8.9, 8.01, 7.15, 6.71, 6.26, 4.92, 4.92, 7.6, 7.2, 5.69, 6.01, 3.4, 5.37, -0.0, -0.0, 9.39, 10.28, 8.18, 8.22, 12.07, 11.99, 16.71, 23.11, 19.21, 14.3, 9.48, 10.82, 13.62, 15.23, 16.36, 16.8, 16.88, 17.36, 17.81, 16.02, 13.86, 12.52, 11.78, 11.45, 11.56, 11.71, 11.93, 11.76, 11.76, 11.76, 12.72, 12.72, 12.72, 12.72, 13.15, 13.15, 13.15, 13.57, 14.13, 14.47, 14.9, 14.9, 14.95, 14.51, 14.69, 15.14, 15.14, 15.2, 15.2, 15.65, 16.09, 16.09, 16.09, 16.09, 15.59, 15.15, 15.15, 14.71, 14.58, 15.02, 15.02, 15.02, 15.02, 14.99, 15.43, 15.43, 15.87, 15.87, 16.31, 16.48, 16.48, 16.04, 15.15, 13.41, 12.04, 11.59, 12.48, 13.37, 13.36, 12.92, 10.56, 10.12, 9.24, 8.8, 8.46, 7.56, 7.15, 6.71, 6.26, 5.36, 4.82, 7.2, 7.2, 5.69, 6.01, 6.01, 5.37, 8.49, 8.94, 9.39, 6.95, 10.4, 12.96, 13.11, 15.13, 17.81, 19.42, 17.96, 15.75, 15.65, 14.11, 14.39, 15.29, 16.15, 16.07, 16.09, 16.09, 14.3, 12.52, 12.03, 11.44, 10.7, 11.21, 11.49, 12.04, 12.04, 11.95, 11.95, 12.72, 12.72, 12.72, 12.72, 13.15, 13.15, 13.57, 13.57, 14.13, 14.47, 14.9, 14.9, 14.95, 14.51, 14.69, 15.14, 15.14, 15.2, 15.2, 15.65, 15.65, 16.09, 16.09, 16.09, 15.6, 15.15, 15.15, 14.71, 14.58, 15.02, 15.02, 15.02, 14.58, 14.58, 14.55, 14.99, 15.43, 15.43, 15.87, 15.87, 16.03, 16.03, 15.65, 13.41, 12.07, 11.59, 12.03, 12.93, 13.23, 12.79, 11.44, 10.12, 9.64, 9.21, 8.45, 8.01, 7.6, 7.15, 6.71, 5.81, 5.36, 5.29, 7.2, 6.8, 7.2, 8.0, 7.2, 6.01, 8.94, 8.94, 10.73, 7.27, 13.15, 13.41, 14.73, 15.18, 16.07, 18.06, 20.32, 21.46, 18.88, 14.3, 12.74, 13.57, 13.86, 13.36, 12.93, 12.04, 11.59, 11.14, 11.0, 10.96, 11.44, 11.58, 11.59, 12.04, 12.04, 12.04, 12.3, 12.3, 12.72, 12.72, 13.15, 13.15, 13.57, 13.57, 14.13, 14.47, 14.9, 14.9, 14.9, 14.95, 14.69, 14.69, 15.14, 15.2, 15.2, 15.65, 15.65, 15.65, 16.09, 16.09, 15.6, 15.15, 15.15, 14.71, 14.58, 15.02, 15.02, 15.02, 14.58, 14.55, 14.55, 14.55, 14.55, 14.99, 15.43, 15.83, 16.03, 16.03, 15.2, 12.96, 10.28, 10.73, 11.59, 12.35, 12.79, 12.79, 11.88, 10.96, 10.08, 9.64, 8.77, 8.0, 7.55, 7.6, 6.71, 6.26, 5.81, 5.36, 8.05, 6.8, 7.2, 8.0, 7.2, 6.01, 8.94, 8.94, -9.39, -0.0, 8.85, 14.47, 14.75, 14.11, 14.55, 16.37, 19.97, 22.6, 20.9, 14.68, 13.09, 12.71, 12.52, 12.52, 12.52, 11.14, 11.14, 11.13, 11.57, 11.57, 11.57, 12.03, 12.07, 11.62, 12.07, 12.07, 12.3, 12.3, 12.72, 12.72, 13.15, 13.15, 13.57, 13.57, 14.13, 14.47, 14.9, 14.9, 14.9, 14.9, 15.14, 14.69, 14.69, 15.2, 15.2, 15.65, 15.65, 15.65, 15.65, 16.09, 15.6, 15.15, 14.71, 14.71, 14.58, 14.58, 15.02, 14.58, 14.58, 14.55, 14.55, 14.55, 14.11, 14.95, 14.95, 15.39, 15.58, 16.01, 14.68, 12.07, 9.8, 10.73, 11.59, 12.35, 13.19, 12.75, 12.31, 11.4, 10.52, 9.6, 8.73, 8.29, 7.55, 7.54, 6.71, 6.26, 5.81, 5.36, 8.05, 7.15, 7.6, 8.49, 8.49, 8.05, 8.49, 8.49, -8.94, -7.27, 10.8, 13.82, 16.09, 15.18, 14.11, 14.92, 17.88, 19.47, 18.27, 15.2, 14.3, 13.36, 12.83, 12.96, 12.52, 11.58, 11.58, 11.58, 11.58, 11.57, 11.58, 12.07, 12.07, 12.07, 12.07, 12.07, 12.3, 12.3, 12.3, 12.72, 13.15, 13.15, 13.57, 13.57, 14.13, 14.47, 14.9, 14.9, 14.9, 14.9, 15.14, 14.69, 14.69, 14.69, 15.2, 15.2, 15.65, 15.65, 15.65, 15.65, 15.59, 15.15, 14.71, 14.71, 14.14, 14.14, 14.58, 14.58, 14.58, 14.55, 13.88, 14.31, 14.07, 14.07, 14.95, 14.9, 15.34, 15.57, 14.66, 12.0, 10.73, 12.07, 13.72, 14.07, 14.03, 13.59, 12.71, 11.84, 10.47, 9.75, 8.48, 8.29, 7.85, 7.54, 7.08, 6.64, 6.2, 5.75, 5.26, 8.05, 8.05, 8.05, 7.6, 8.05, 5.69, 8.49, 8.94, -8.94, 11.62, 12.96, 15.15, 15.31, 15.63, 15.47, 15.84, 15.04, 14.59, 14.75, 14.75, 14.3, 13.41, 12.96, 12.96, 12.07, 12.02, 12.03, 11.59, 11.62, 11.62, 12.07, 12.07, 12.03, 12.04, 12.07, 12.3, 12.3, 12.3, 12.72, 12.72, 13.15, 13.15, 13.57, 14.03, 14.47, 14.47, 14.47, 14.9, 15.12, 14.69, 14.69, 14.69, 14.75, 14.75, 15.2, 15.2, 15.2, 15.2, 15.65, 15.59, 15.59, 14.7, 14.26, 14.14, 14.14, 14.14, 14.58, 14.58, 14.31, 13.88, 13.88, 13.8, 13.63, 14.03, 14.47, 14.47, 14.9, 14.03, 12.22, 11.13, 12.71, 15.15, 15.57, 14.75, 14.3, 13.86, 12.44, 10.66, 9.6, 8.73, 8.29, 7.98, 7.54, 7.52, 7.08, 6.64, 5.59, 7.21, 7.15, 7.6, 8.05, 7.6, 8.49, 5.37, 8.05, 8.49, 8.94, 7.59, 10.0, 12.52, 14.75, 18.06, 19.21, 15.57, 11.54, 11.03, 12.47, 13.41, 12.96, 12.96, 12.52, 12.07, 12.07, 11.62, 11.62, 11.62, 11.62, 11.62, 12.07, 12.04, 12.04, 11.93, 11.93, 11.87, 11.87, 12.3, 12.3, 12.72, 12.72, 13.15, 13.57, 13.96, 14.03, 14.47, 14.47, 14.47, 14.68, 14.69, 14.69, 14.69, 14.75, 14.75, 14.75, 15.2, 15.2, 15.2, 15.2, 15.15, 15.15, 14.7, 14.26, 14.11, 13.7, 13.7, 13.7, 13.94, 13.88, 13.88, 13.37, 13.63, 13.15, 13.59, 14.03, 14.03, 14.03, 13.59, 12.27, 11.34, 12.72, 14.7, 15.2, 14.3, 13.86, 13.41, 12.07, 9.83, 9.33, 8.89, 8.43, 7.98, 8.05, 7.97, 7.52, 7.08, 6.45, 5.51, 7.21, 7.6, 7.6, 8.05, 8.05, 5.06, 8.05, 8.49, 0.0, 0.0, 4.4, 8.22, 13.01, 16.54, 21.4, 17.81, 12.07, 11.02, 11.62, 12.07, 12.48, 12.48, 12.07, 11.62, 11.62, 11.62, 11.62, 11.62, 11.6, 11.6, 11.96, 11.96, 11.93, 11.93, 11.93, 11.87, 11.87, 12.3, 12.3, 12.72, 12.72, 13.15, 13.15, 13.53, 14.03, 14.03, 14.47, 14.47, 14.68, 14.69, 14.69, 14.69, 14.75, 14.75, 14.75, 15.2, 15.2, 15.2, 15.2, 15.15, 15.15, 14.7, 14.26, 13.67, 13.67, 13.25, 13.25, 13.01, 13.44, 13.88, 12.94, 13.15, 13.15, 13.15, 13.15, 13.59, 13.59, 13.15, 11.88, 11.21, 12.58, 14.07, 14.25, 13.36, 12.52, 12.07, 11.18, 9.39, 9.39, 8.94, 8.94, 8.05, 8.05, 8.05, 8.05, 7.52, 7.52, 6.36, 7.21, 6.8, 7.6, 8.05, 8.05, 7.15, -0.0, 8.05, 0.0, 0.0, 5.7, 6.2, 9.66, 14.03, 17.86, 20.0, 17.25, 15.01, 14.93, 14.97, 13.84, 13.41, 12.96, 12.07, 12.04, 11.96, 11.96, 11.96, 11.53, 11.86, 12.3, 11.84, 11.8, 11.8, 11.8, 11.87, 11.87, 12.3, 12.3, 12.72, 12.72, 13.15, 13.15, 13.96, 13.96, 14.03, 14.47, 14.68, 14.68, 14.69, 14.69, 14.75, 14.75, 14.75, 14.75, 15.2, 15.2, 15.2, 15.15, 15.15, 15.15, 14.7, 14.11, 13.67, 13.23, 13.23, 13.01, 13.01, 13.01, 12.94, 13.19, 12.71, 13.15, 13.15, 13.15, 13.15, 13.15, 12.71, 11.44, 11.0, 11.88, 13.19, 13.36, 13.36, 12.02, 11.13, 10.28, 8.94, 8.94, 8.49, 8.49, 8.05, 8.05, 7.6, 8.05, 8.05, 7.6, 7.08, 5.94, 7.63, 8.05, 8.05, 6.79, 6.8, 5.37, 8.94, 3.8, 2.97, 4.6, 7.59, 9.58, 12.44, 14.72, 17.15, 17.9, 17.66, 18.64, 19.43, 18.08, 14.3, 13.39, 12.87, 12.71, 12.09, 11.61, 12.08, 10.8, 11.66, 11.66, 11.66, 11.11, 11.11, 11.11, 11.72, 11.72, 12.3, 12.3, 12.3, 12.72, 12.72, 13.53, 13.96, 13.96, 14.03, 14.03, 14.68, 14.68, 14.68, 14.69, 14.75, 14.75, 14.75, 14.75, 14.75, 15.2, 15.2, 15.15, 15.15, 15.15, 14.7, 14.11, 13.67, 13.67, 13.23, 12.58, 12.58, 12.51, 12.75, 12.71, 12.71, 12.71, 13.09, 12.66, 12.71, 12.71, 12.71, 11.44, 11.0, 11.88, 12.75, 12.75, 12.71, 11.88, 11.0, 9.68, 8.9, 8.45, 8.0, 7.98, 7.98, 7.98, 7.6, 7.6, 7.6, 7.6, 7.08, 6.64, 5.81, 8.49, 8.05, 7.15, 7.6, 7.2, 5.69, 3.8, 2.83, 5.46, 9.2, 10.73, 11.62, 12.96, 14.09, 13.59, 14.13, 18.92, 21.94, 19.72, 15.83, 14.3, 13.29, 12.8, 12.21, 11.6, 11.03, 10.32, 10.85, 11.37, 10.85, 10.73, 10.73, 10.73, 11.72, 11.72, 12.14, 12.3, 12.56, 12.72, 12.72, 13.53, 13.53, 13.96, 14.03, 14.23, 14.68, 14.68, 14.68, 14.75, 14.75, 14.75, 14.75, 14.75, 14.75, 15.2, 15.2, 15.15, 15.15, 15.15, 14.55, 14.11, 13.67, 13.67, 13.23, 12.58, 12.58, 12.31, 12.31, 12.27, 12.27, 12.22, 12.66, 12.66, 12.71, 12.71, 12.71, 11.88, 11.0, 11.88, 12.31, 12.27, 12.27, 11.4, 10.56, 9.68, 8.8, 8.45, 8.0, 8.0, 7.98, 7.54, 7.98, 7.54, 7.08, 7.08, 6.64, 6.26, 5.81, 8.49, 7.6, 8.05, 8.49, 8.05, 6.01, 0.0, 0.0, 6.64, 10.28, 10.73, 11.18, 12.44, 11.8, 10.48, 11.64, 17.09, 21.8, 20.8, 18.36, 15.69, 13.86, 12.8, 11.77, 9.89, 9.97, 10.2, 9.81, 10.0, 10.0, 10.0, 10.0, 10.0, 11.72, 11.72, 12.14, 12.14, 12.14, 12.56, 13.15, 13.53, 13.53, 13.53, 14.03, 14.23, 14.23, 14.68, 14.68, 14.75, 14.75, 14.75, 14.75, 14.3, 14.3, 14.75, 15.15, 15.15, 15.15, 15.15, 14.55, 14.11, 13.67, 13.67, 13.23, 13.23, 12.75, 12.31, 12.27, 11.84, 11.78, 12.22, 12.22, 12.22, 12.22, 12.27, 12.27, 11.84, 11.0, 11.88, 12.31, 12.27, 11.84, 10.96, 10.52, 9.92, 9.21, 8.77, 7.85, 7.42, 7.37, 7.37, 7.37, 7.31, 7.52, 6.64, 6.2, 5.36, 4.92, 8.05, 7.6, 7.6, 8.05, 8.05, 8.94, 0.0, 0.0, 0.0, 9.83, 10.28, 10.41, 9.97, 9.16, 9.36, 11.58, 14.58, 18.45, 19.84, 20.68, 19.72, 16.48, 12.87, 10.41, 9.08, 9.08, 9.17, 9.16, 8.79, 9.43, 9.43, 9.43, 9.43, 11.72, 11.72, 12.14, 12.14, 12.14, 12.56, 13.53, 13.53, 13.53, 13.96, 13.96, 14.23, 14.68, 14.68, 14.75, 14.75, 14.75, 14.75, 14.75, 14.75, 14.75, 14.7, 15.15, 15.15, 15.15, 14.7, 14.55, 14.11, 13.67, 13.23, 13.23, 13.19, 12.75, 12.27, 12.27, 11.84, 11.78, 11.78, 11.78, 12.22, 12.22, 12.27, 12.27, 11.84, 11.44, 12.31, 12.75, 12.27, 11.4, 10.52, 10.08, 9.42, 9.42, 8.99, 8.29, 7.81, 7.12, 6.7, 6.7, 7.31, 7.31, 6.45, 5.59, 5.29, 4.82, 6.0, 6.0, 7.15, 7.6, 8.49, 8.94, 9.39, 0.0, 0.0, 0.0, 9.83, 7.27, 3.39, 5.0, 8.82, 11.39, 12.33, 13.1, 17.27, 21.22, 21.29, 13.86, 11.13, 9.67, 9.27, 8.22, 8.22, 7.9, 8.35, 8.73, 8.38, 8.38, 8.38, 11.72, 11.72, 12.14, 12.14, 12.14, 13.01, 13.44, 13.53, 13.53, 13.96, 14.22, 14.23, 14.68, 14.68, 14.75, 14.75, 14.75, 14.75, 14.75, 14.75, 14.75, 14.7, 15.15, 15.15, 14.7, 14.7, 14.55, 14.11, 13.67, 13.67, 13.19, 13.19, 12.75, 12.27, 12.27, 11.78, 11.78, 11.78, 11.78, 11.78, 11.78, 11.84, 11.84, 11.84, 11.84, 12.31, 12.75, 12.27, 11.4, 10.52, 9.85, 9.42, 9.42, 8.48, 7.95, 7.53, 7.53, 7.12, 6.7, 6.57, 6.57, 6.02, 5.51, 5.09, 4.57, 5.21, 2.8, 3.0, 7.15, 8.05, 8.49, 8.94, 9.39, 0.0, 0.0, 9.39, -0.0, -0.0, 3.39, 8.73, 11.03, 11.39, 11.6, 14.58, 20.47, 18.72, 14.75, 10.24, 7.51, 8.23, 9.3, 7.27, 6.71, 8.22, 7.9, 8.24, 8.24, 8.24, 11.72, 11.72, 11.72, 12.14, 12.58, 12.58, 13.01, 13.53, 13.53, 14.22, 14.22, 14.68, 14.68, 14.75, 14.75, 14.75, 14.75, 14.75, 14.75, 14.75, 14.75, 14.69, 14.7, 14.7, 14.7, 14.7, 14.55, 14.11, 13.67, 13.63, 13.19, 13.19, 12.75, 12.71, 12.27, 11.78, 11.78, 11.35, 11.35, 11.35, 11.78, 11.84, 11.84, 11.4, 11.84, 12.27, 12.75, 12.27, 11.84, 10.7, 9.85, 9.42, 9.42, 8.48, 7.95, 7.53, 7.53, 7.12, 6.99, 6.57, 6.57, 6.16, 5.6, 4.6, 4.6, 4.29, 3.0, 0.0, 0.0, 0.0, 0.0, 0.0, 9.39, 6.95, 0.0, -6.64, 9.83, -0.0, 4.6, 9.3, 10.68, 10.88, 11.99, 14.06, 22.8, 20.12, 15.65, 11.18, 7.28, 5.1, 8.72, 8.93, 6.7, 5.75, 6.44, 7.27, 7.27, 7.27, 11.72, 11.72, 11.72, 12.58, 12.58, 12.58, 13.01, 13.53, 13.53, 14.22, 14.22, 14.66, 14.68, 14.75, 14.75, 14.75, 14.75, 14.75, 14.75, 14.75, 14.75, 14.69, 14.69, 14.69, 14.7, 14.7, 14.26, 14.11, 13.63, 13.19, 13.19, 12.75, 12.71, 12.71, 12.27, 11.78, 11.78, 11.35, 11.35, 11.35, 11.35, 11.35, 11.4, 11.4, 11.4, 11.4, 11.84, 11.84, 11.56, 10.7, 10.28, 9.85, 9.42, 8.91, 8.37, 7.6, 7.2, 7.2, 6.6, 6.6, 6.21, 5.82, 5.6, 5.2, 4.54, 4.11, 3.72, 1.63, 0.0, -1.73, -1.84, 0.0, 2.69, 4.0, 0.0, 0.0, -9.39, -0.0, 9.2, 10.18, 10.84, 11.18, 11.84, 19.67, 23.25, 21.01, 16.99, 12.96, 10.62, 6.64, 7.28, 7.95, 6.64, 2.28, 0.0, -9.83, -9.83, -9.83, 12.14, 12.14, 12.14, 12.14, 12.58, 12.58, 13.01, 13.09, 13.77, 13.77, 14.22, 14.22, 14.75, 14.75, 14.75, 14.75, 14.75, 14.75, 14.75, 15.2, 14.75, 14.69, 14.69, 14.69, 14.69, 14.25, 14.25, 14.07, 13.63, 13.19, 13.19, 12.75, 12.71, 12.27, 12.27, 11.78, 11.78, 11.35, 11.35, 10.91, 11.35, 11.35, 11.4, 11.4, 10.96, 10.96, 11.4, 11.13, 11.13, 10.7, 10.28, 9.75, 9.33, 9.33, 8.4, 8.0, 7.6, 7.6, 6.99, 6.6, 6.21, 6.21, 5.58, 5.21, 4.43, 3.91, 3.76, 3.22, 2.26, 0.0, 0.0, -1.4, 0.0, 0.0, 0.0, 0.0, -9.39, 9.83, 10.28, 10.73, 10.73, 11.02, 13.83, 18.76, 21.89, 20.55, 16.99, 13.86, 12.31, 7.9, 7.59, 8.4, 5.69, -2.69, -6.32, -9.39, -9.39, -9.39, 12.14, 12.14, 12.14, 12.14, 12.14, 12.58, 13.09, 13.77, 13.77, 13.77, 13.77, 14.3, 14.75, 14.75, 14.75, 14.75, 14.75, 14.75, 14.75, 15.2, 15.2, 14.69, 14.69, 14.69, 14.25, 14.25, 14.25, 13.8, 13.63, 13.19, 13.19, 12.71, 12.71, 12.27, 12.22, 11.78, 11.78, 11.35, 11.35, 10.91, 10.91, 11.35, 11.35, 10.96, 10.96, 10.52, 10.28, 10.28, 10.28, 10.28, 10.18, 9.75, 9.33, 9.33, 8.8, 8.4, 8.0, 7.76, 7.37, 6.6, 6.18, 5.82, 5.46, 5.15, 4.74, 4.74, 4.19, 3.22, 2.26, 2.26, 0.0, -2.69, -2.83, -2.17, -2.83, 0.0, -4.2, 0.0, 7.27, 9.75, 9.75, 10.73, 12.93, 16.47, 19.97, 19.16, 15.65, 12.48, 10.88, 6.98, 7.27, 8.93, 6.32, -6.32, -4.2, 0.0, 0.0, 0.0, 12.14, 12.14, 12.14, 12.14, 12.14, 12.42, 12.88, 13.33, 13.33, 13.33, 13.86, 14.3, 14.3, 14.75, 14.75, 14.75, 14.75, 14.75, 14.75, 15.2, 15.14, 15.14, 15.14, 14.69, 14.25, 14.25, 14.25, 13.8, 13.63, 13.19, 12.71, 12.71, 12.27, 12.27, 12.22, 11.78, 11.78, 11.35, 10.91, 10.91, 10.91, 10.91, 10.91, 10.96, 10.52, 10.52, 10.28, 10.52, 10.08, 10.08, 9.75, 9.75, 9.75, 8.99, 8.8, 8.4, 8.15, 7.28, 6.91, 6.55, 6.55, 6.18, 5.82, 5.15, 4.74, 4.29, 3.72, 3.45, 2.32, 3.4, 3.4, 0.0, -6.01, -6.32, -4.0, 0.0, 0.0, 0.0, 2.49, 5.7, 7.27, 10.18, 12.02, 14.3, 18.26, 18.71, 15.63, 12.07, 10.14, 2.02, 2.1, 3.39, 10.28, -4.2, 0.0, 0.0, 0.0, 0.0, 12.22, 12.22, 12.14, 12.22, 12.88, 12.88, 12.88, 12.88, 13.33, 13.41, 13.86, 14.3, 14.3, 14.75, 14.75, 14.75, 14.75, 14.75, 14.75, 14.75, 15.12, 15.14, 15.14, 14.69, 14.25, 14.25, 14.25, 13.8, 13.36, 13.15, 12.71, 12.27, 12.27, 12.27, 11.78, 11.78, 11.78, 11.35, 11.35, 10.91, 10.91, 10.91, 10.91, 10.91, 10.47, 10.52, 10.52, 10.08, 10.08, 10.08, 9.75, 9.75, 9.75, 8.99, 8.8, 8.8, 7.64, 7.28, 7.28, 6.45, 6.11, 5.77, 5.77, 5.06, 4.58, 4.58, 4.58, 3.97, 2.12, 1.73, 0.0, 0.0, -3.6, -4.46, -4.71, 0.0, 0.0, 0.0, 2.02, 4.6, 6.17, 8.03, 10.0, 12.68, 16.52, 18.33, 16.09, 13.39, 9.39, -8.06, -7.44, -7.27, 0.0, 0.0, -2.97, -2.28, -2.28, -2.28, 12.22, 12.22, 12.22, 12.44, 12.88, 12.88, 12.88, 13.33, 13.41, 13.41, 13.86, 13.86, 14.3, 14.75, 14.75, 14.75, 14.75, 14.75, 14.75, 15.2, 15.12, 15.12, 15.12, 14.68, 14.25, 14.25, 13.8, 13.8, 13.34, 12.71, 12.71, 12.27, 12.27, 11.78, 11.78, 11.78, 11.35, 11.35, 11.35, 10.91, 10.91, 10.91, 10.91, 10.47, 10.47, 10.47, 10.47, 10.08, 10.08, 10.08, 9.75, 9.33, 9.75, 8.99, 8.8, 8.8, 7.64, 7.64, 6.79, 6.45, 6.01, 5.69, 5.69, 5.37, 4.16, 4.16, 4.16, 3.55, 2.82, 1.49, 0.0, 0.0, -2.26, -3.4, -2.99, 0.0, 0.0, 2.28, 2.39, 2.39, 4.6, 7.27, 9.09, 11.55, 14.44, 17.81, 16.54, 14.3, 11.18, -8.49, -9.39, -9.83, -10.28, -10.28, -8.4, -6.64, -6.64, -6.64, 12.44, 12.44, 12.44, 12.44, 12.88, 12.88, 12.88, 13.41, 13.41, 13.41, 13.86, 13.86, 14.3, 14.3, 14.75, 14.3, 14.3, 14.75, 14.75, 14.68, 15.12, 15.12, 15.12, 15.12, 14.23, 13.79, 13.79, 13.79, 13.34, 12.71, 12.71, 12.27, 12.27, 11.78, 11.78, 11.78, 11.78, 11.35, 11.35, 10.91, 10.91, 10.91, 10.47, 10.47, 10.47, 10.47, 10.04, 10.04, 10.04, 9.75, 9.75, 9.33, 8.99, 8.99, 8.8, 8.4, 7.64, 7.64, 7.13, 6.79, 6.01, 6.01, 5.69, 5.37, 4.95, 4.16, 4.16, 4.42, 3.77, 2.26, 1.18, 0.0, 0.0, -1.73, -1.84, -1.67, 0.0, 0.0, 0.0, 0.0, 2.49, 6.44, 9.09, 10.99, 13.49, 16.69, 16.82, 15.18, 13.41, 8.94, -9.21, -9.64, -8.18, -6.95, -6.64, 9.39, 9.39, 9.39, 12.44, 12.44, 12.44, 12.44, 12.44, 12.88, 12.96, 12.96, 13.41, 13.41, 13.86, 13.86, 14.3, 14.3, 14.3, 14.3, 14.3, 14.3, 14.68, 14.68, 14.68, 15.12, 15.12, 14.68, 14.23, 13.79, 13.79, 13.34, 13.34, 12.71, 12.71, 12.27, 11.84, 11.78, 11.78, 11.78, 11.78, 11.35, 11.35, 11.03, 10.6, 10.6, 10.91, 10.47, 10.47, 10.47, 10.04, 10.04, 10.04, 9.75, 9.33, 8.99, 8.99, 8.99, 8.8, 7.96, 7.64, 6.79, 7.13, 6.32, 6.32, 5.59, 5.3, 5.3, 4.56, 4.03, 4.03, 4.03, 4.68, 2.99, 2.26, 1.95, 2.12, 0.0, 0.0, 0.0, 0.0, 0.0, 0.0, 0.0, 2.49, 6.7, 8.49, 10.56, 12.98, 16.09, 16.37, 15.18, 13.41, 12.07, 9.39, -9.11, -5.46, -0.0, 2.97, 4.96, 4.96, 4.96, 12.44, 12.44, 12.88, 12.88, 12.88, 12.96, 12.96, 12.96, 12.96, 13.41, 13.41, 13.86, 14.3, 14.3, 14.3, 14.3, 14.3, 14.3, 14.23, 14.68, 14.68, 14.68, 14.68, 14.68, 14.23, 13.79, 13.79, 13.34, 13.15, 12.71, 12.71, 12.27, 11.84, 11.78, 11.78, 11.35, 11.35, 11.03, 11.03, 10.6, 10.6, 10.6, 10.91, 10.47, 10.47, 10.47, 10.47, 10.04, 9.75, 9.75, 8.99, 8.99, 8.99, 8.99, 7.96, 7.96, 7.64, 6.79, 6.32, 6.32, 6.32, 5.59, 5.59, 5.3, 4.83, 4.03, 4.03, 4.26, 4.26, 3.4, 2.82, 2.12, 2.6, 5.37, 0.0, 0.0, 0.0, 0.0, 0.0, 0.0, 3.82, 5.95, 7.9, 9.89, 11.75, 14.27, 15.47, 14.73, 13.86, 12.52, 10.73, 9.83, -0.0, 2.83, 6.32, 7.15, 7.15, 7.15, 12.44, 12.44, 12.88, 12.88, 12.88, 12.96, 12.96, 12.96, 12.96, 13.41, 13.41, 13.86, 14.3, 14.3, 14.3, 14.3, 14.3, 14.3, 14.23, 14.68, 14.68, 14.68, 14.68, 14.68, 14.23, 13.79, 13.79, 13.34, 13.15, 12.71, 12.71, 12.27, 11.84, 11.78, 11.78, 11.35, 11.35, 11.03, 11.03, 10.6, 10.6, 10.6, 10.91, 10.47, 10.47, 10.47, 10.47, 10.04, 9.75, 9.75, 8.99, 8.99, 8.99, 8.99, 7.96, 7.96, 7.64, 6.79, 6.32, 6.32, 6.32, 5.59, 5.59, 5.3, 4.83, 4.03, 4.03, 4.26, 4.26, 3.4, 2.82, 2.12, 2.6, 5.37, 0.0, 0.0, 0.0, 0.0, 0.0, 0.0, 3.82, 5.95, 7.9, 9.52, 10.63, 12.14, 14.4, 14.67, 13.41, 12.96, 12.07, 9.39, 9.39, 8.91, 8.4, 8.72, 8.72, 8.72]}, {"header": {"dx": 0.06612293990616946, "dy": 0.0552356325346848, "nx": 98, "ny": 59, "la1": 35.046912555036876, "la2": 31.78801023549047, "lo1": -121.43107172385933, "lo2": -114.95102361305473, "refTime": "2026041006", "parameterCategory": 1, "parameterNumber": 3}, "data": [0.0, 0.0, 0.0, 0.0, 0.0, 0.0, 0.0, 0.0, 0.0, 0.0, 0.0, 0.0, 0.0, 0.0, 0.0, 0.0, 0.0, -0.0, 0.0, 0.0, 9.39, 7.81, 6.32, 4.6, 4.0, 3.7, 3.3, 4.2, 4.34, 5.49, 6.64, 5.89, 6.01, 4.74, -4.74, -3.47, -5.06, -6.4, -7.6, -8.05, -8.24, -8.18, -6.45, -5.8, -6.4, -7.0, -8.78, -8.4, -3.98, 7.2, 8.44, 7.95, 7.95, 8.85, 9.76, 10.23, 10.02, 9.48, 8.97, 7.89, 7.69, 8.05, 9.96, 11.6, 11.26, 10.18, 9.8, 9.21, 8.15, 7.03, 5.8, 5.25, 4.33, 4.64, 4.28, 3.96, 3.44, 2.91, 2.11, 0.0, -0.0, -2.39, -5.21, -6.32, -8.0, -8.94, -8.06, -6.01, -4.37, -3.63, -4.92, -5.63, -6.09, -6.33, -6.56, -6.56, -5.41, -4.6, 0.0, 0.0, 0.0, 0.0, 0.0, 0.0, 0.0, 0.0, 0.0, 0.0, 0.0, 0.0, 0.0, 0.0, 0.0, 0.0, 0.0, -0.0, -0.0, -0.0, 10.28, 7.27, 6.64, 5.36, 4.14, 3.8, 2.83, 4.0, 4.96, 6.32, 6.44, 7.42, 7.21, 6.17, -0.0, -0.0, -0.0, -0.0, -8.49, -8.94, -9.83, -10.4, -10.37, -10.12, -10.99, -10.52, -8.8, -2.66, 7.6, 8.73, 6.97, 6.97, 7.65, 8.22, 9.42, 9.76, 10.02, 9.48, 7.89, 7.89, 7.2, 7.78, 10.79, 11.92, 11.6, 10.37, 9.48, 8.91, 7.89, 6.79, 6.43, 5.25, 4.99, 4.43, 4.43, 4.1, 3.44, 2.91, 2.11, 0.0, -0.0, -2.39, -5.21, -6.32, -8.0, -8.94, -8.06, -6.01, -4.37, -3.63, -4.92, -5.63, -6.09, -6.33, -6.56, -6.56, -5.41, -4.6, 0.0, 0.0, 0.0, 0.0, 0.0, 0.0, 0.0, 0.0, 0.0, 0.0, 0.0, 0.0, 0.0, 0.0, 0.0, 0.0, 0.0, -7.9, -7.9, -7.9, -0.0, 0.0, 7.9, 7.27, 5.36, 4.71, 5.59, 5.36, 4.96, 7.44, 7.94, 7.11, 7.12, 7.6, 6.51, 2.69, 2.54, -0.0, -9.39, -10.28, -11.4, -12.74, -12.87, -12.64, -12.08, -9.0, 0.0, 10.17, 8.73, 6.44, 6.71, 6.97, 7.85, 9.5, 9.42, 10.09, 9.48, 8.91, 7.89, 7.44, 7.2, 8.44, 11.26, 12.14, 11.33, 10.79, 10.12, 9.64, 8.72, 8.3, 7.25, 6.2, 4.81, 4.24, 2.54, 2.24, 1.77, 3.1, 1.62, 0.0, -0.0, -2.97, -6.32, -6.32, -6.98, -8.3, -8.05, -7.07, -5.72, -5.64, -6.56, -7.38, -7.63, -7.63, -7.24, -6.2, -5.28, -4.5, 0.0, 0.0, 0.0, 0.0, 0.0, 0.0, 0.0, 0.0, 0.0, 0.0, 0.0, 0.0, 0.0, 0.0, 0.0, 0.0, 0.0, -12.07, -8.53, -5.0, -0.0, -0.0, 0.0, 11.62, 8.58, 6.95, 6.01, 5.59, 6.32, 8.49, 8.24, 8.82, 8.94, 8.77, 8.0, 6.64, 9.83, 0.0, -11.62, -13.01, -15.27, -15.62, -12.01, -5.8, 0.0, 6.14, 9.49, 7.15, 6.69, 6.5, 6.97, 8.01, 8.85, 9.5, 10.01, 9.76, 9.17, 8.91, 7.89, 6.76, 7.43, 9.17, 11.72, 11.87, 11.76, 10.99, 10.94, 9.92, 9.2, 9.13, 8.84, 7.59, 6.24, 4.36, 1.98, 0.0, -0.93, 0.0, 0.92, 0.0, -4.4, -3.11, -7.44, -6.01, -5.03, -7.15, -8.94, -7.28, -6.73, -8.01, -8.31, -8.18, -8.01, -6.97, -6.31, -5.06, -4.56, -3.63, 0.0, 0.0, 0.0, 0.0, 0.0, 0.0, 0.0, 0.0, 0.0, 0.0, 0.0, 0.0, 0.0, 0.0, -10.73, -11.62, -11.62, -12.07, -10.8, -10.04, -5.6, -0.0, 0.0, 11.62, 10.18, 9.3, 6.95, 5.86, 6.64, 7.6, 8.94, 8.8, 11.28, 11.62, 7.9, 2.71, 3.53, 0.0, -13.99, -17.97, -15.99, 0.0, 6.8, 6.9, 8.1, 8.53, 8.93, 7.9, 7.44, 7.73, 8.85, 9.62, 10.19, 9.5, 9.42, 9.17, 8.61, 8.23, 7.89, 6.76, 7.19, 10.79, 12.14, 11.56, 11.87, 11.36, 10.81, 10.41, 10.3, 10.12, 8.72, 8.29, 7.82, 6.09, 3.44, 0.0, -3.34, -2.61, 0.0, 0.0, -9.33, -7.81, -7.07, -5.31, -4.87, -7.28, -8.82, -7.15, -8.6, -10.12, -8.66, -7.51, -7.64, -6.88, -5.63, -4.66, -3.14, -2.83, 0.0, 0.0, 0.0, 0.0, 0.0, 0.0, 0.0, 0.0, 0.0, 0.0, -8.53, -7.27, 0.0, 0.0, -11.18, -11.18, -11.62, -12.07, -12.07, -12.14, -11.2, -11.45, -13.41, 0.0, 5.4, 5.4, 6.45, 5.0, 6.44, 6.44, 7.51, 9.39, 9.83, 12.07, 0.0, 0.0, 0.0, 0.0, -12.33, -18.78, 11.38, 13.57, 10.01, 9.77, 9.62, 10.61, 10.04, 9.66, 9.16, 8.53, 9.08, 9.27, 9.16, 8.85, 9.17, 8.54, 7.78, 7.78, 6.42, 6.0, 6.87, 11.87, 12.0, 11.91, 11.96, 11.36, 10.56, 10.62, 10.47, 9.32, 8.31, 7.23, 8.29, 7.4, 5.41, 3.36, -1.07, -4.8, -1.69, 0.0, -9.11, -8.77, -7.47, -5.93, -6.55, -8.44, -8.82, -9.62, -10.51, -10.22, -9.26, -8.42, -7.82, -5.53, -5.63, -4.2, -3.14, -3.82, 0.0, 0.0, 0.0, 0.0, 0.0, 0.0, 0.0, 0.0, -6.4, -6.2, -5.4, -6.95, -7.59, -7.59, -12.07, -11.18, -12.07, -12.52, -12.27, -12.52, -12.96, -14.3, -14.75, -14.84, -10.75, -4.66, -4.81, 0.0, 3.14, 6.44, 7.59, 7.51, 8.18, 4.4, 0.0, 0.0, 0.0, 0.0, -3.36, 0.0, 6.4, 9.17, 13.41, 12.72, 13.19, 11.85, 10.99, 10.99, 10.35, 10.41, 9.42, 9.46, 8.85, 8.85, 8.15, 7.54, 6.43, 6.43, 5.8, 4.81, 7.82, 11.91, 11.55, 11.88, 11.56, 10.99, 10.99, 9.76, 8.54, 7.2, 5.81, 5.46, 4.87, 4.81, 4.75, 4.75, 2.55, 0.0, 0.0, -1.39, -8.67, -8.49, -9.33, -9.54, -10.68, -11.49, -11.2, -11.28, -10.92, -9.96, -9.92, -9.56, -6.01, -3.8, 0.0, -4.0, -3.99, -4.8, 0.0, 0.0, 0.0, 0.0, 0.0, 0.0, 0.0, -4.66, -4.52, -4.24, -7.9, -8.8, -10.28, -7.9, -8.85, -10.0, -11.45, -12.3, -11.6, -11.16, -7.44, -4.24, -7.44, -13.99, -12.16, -10.75, -11.06, -8.93, 0.0, 9.48, 6.7, 5.4, 3.04, 0.0, 0.0, -2.45, -2.54, -1.84, 0.0, 0.0, -0.0, -0.0, -0.0, 12.01, 16.09, 13.88, 11.13, 10.6, 10.43, 10.37, 9.46, 9.16, 9.42, 8.24, 7.51, 7.28, 5.99, 5.99, 4.9, 5.4, 8.22, 11.02, 11.18, 11.35, 11.3, 11.75, 9.8, 6.87, 4.75, 2.72, 2.13, 2.04, 1.83, 0.84, 0.84, 2.25, 3.95, 3.96, 2.06, 0.0, -3.79, -11.88, -9.83, -10.73, -12.03, -12.21, -10.87, -11.03, -9.96, -8.97, -8.94, -6.08, -5.37, 8.49, 0.0, -4.37, -5.46, -5.06, 0.0, 0.0, 0.0, 0.0, 0.0, 0.0, 0.0, -3.58, -4.52, -7.19, -6.45, -9.67, -12.96, -12.3, -11.87, -11.87, -12.58, -13.01, -13.01, -9.48, -4.24, 0.0, 0.0, -3.47, -9.17, -7.9, -6.95, -12.39, 0.0, 0.0, -3.36, -2.98, -3.69, 0.0, 0.0, 0.0, -2.71, -5.0, -2.02, 0.0, -0.0, -0.0, -0.0, -0.0, 11.62, 11.18, 12.52, 11.6, 9.88, 9.77, 10.73, 9.53, 9.08, 8.53, 7.95, 7.56, 6.76, 6.76, 5.64, 5.2, 7.9, 10.32, 9.89, 10.88, 12.39, 10.86, 9.13, 6.87, 1.71, 0.0, 0.0, 0.0, 0.0, 0.0, 0.0, 0.0, 0.77, 1.6, 1.62, 1.53, 0.92, -12.79, -9.83, -8.91, -9.97, -10.73, -10.43, -9.08, -7.97, -6.95, -5.59, -4.43, 6.0, 0.0, -3.8, -4.94, -6.04, -5.76, 0.0, 0.0, 0.0, 0.0, 0.0, 0.0, -3.58, -3.58, -6.4, -5.8, -7.51, -9.17, -10.35, -12.72, -13.44, -13.15, -14.03, -14.55, -14.75, -13.41, -12.58, -11.6, -9.8, -8.58, -10.12, -9.3, -7.51, -10.18, -14.75, -10.12, -8.85, -9.92, -8.68, 0.0, 0.0, 0.0, 0.0, 0.0, 0.0, 0.0, -9.17, -0.0, 0.0, 0.0, 10.28, 10.84, 11.28, 10.8, 10.12, 10.99, 10.73, 9.89, 9.08, 8.69, 8.22, 8.75, 8.22, 6.97, 6.97, 6.16, 9.48, 9.55, 11.03, 12.87, 13.28, 11.09, 9.13, 7.19, 3.32, 0.0, -1.38, -1.11, -1.02, 0.0, 0.0, 0.0, -0.83, -1.77, -0.8, 0.0, 0.79, 0.0, -13.31, -8.0, -8.73, -8.58, -8.82, -8.12, -7.27, -6.32, -5.37, 0.0, -4.74, -6.32, -5.31, -5.76, -6.83, -6.32, 0.0, 0.0, 0.0, 0.0, 0.0, 0.0, -2.89, -2.89, -6.4, -6.0, -7.78, -9.8, -8.66, -10.82, -12.79, -13.28, -14.53, -15.39, -15.43, -16.79, -17.33, -17.02, -15.91, -13.19, -13.19, -11.6, -9.2, -9.2, -12.04, -9.8, -7.78, -7.78, 0.0, 0.0, 0.0, -2.93, 0.0, 2.82, 5.4, 0.0, 0.0, 9.48, 8.22, 5.0, 7.59, 9.2, 10.41, 10.96, 10.38, 10.75, 11.13, 10.8, 10.35, 9.52, 8.79, 9.16, 9.08, 8.53, 7.24, 8.22, 10.5, 10.68, 13.15, 13.99, 14.1, 13.19, 12.07, 10.36, 7.28, 3.82, 1.55, 1.17, 0.0, 0.0, 0.0, -0.86, -1.71, -3.47, -4.65, -3.25, -1.78, 0.89, 0.0, -12.71, -8.3, -6.4, -7.37, -7.64, -7.56, -6.79, -6.79, -8.23, -7.6, -5.36, -6.79, -7.27, -6.95, -6.39, 2.28, 0.0, 0.0, 0.0, 0.0, 0.0, -2.89, -2.89, -5.31, -4.98, -6.9, -7.13, -9.22, -7.93, -7.44, -8.01, -8.01, -11.2, -13.65, -14.85, -14.03, -12.22, -12.73, -11.38, -7.44, -7.19, -5.6, -4.46, -5.75, -3.82, -2.1, 0.0, 10.4, 0.0, -4.8, -2.49, 3.25, 10.8, 12.52, 0.0, 12.39, 13.01, 11.71, 9.3, 9.75, 9.21, 10.73, 10.73, 10.73, 10.73, 10.65, 11.35, 10.79, 10.79, 10.17, 10.2, 10.56, 8.53, 6.63, 8.55, 10.14, 12.46, 14.1, 14.58, 14.62, 14.75, 14.18, 13.2, 11.21, 9.48, 8.1, 6.31, 4.99, 2.32, 0.0, -0.96, -2.13, -3.96, -5.6, -6.0, -2.72, 1.48, 2.45, -10.43, -10.18, -8.05, -7.44, -7.81, -8.0, -7.67, -8.54, -10.05, -7.81, -6.6, -7.4, -7.48, -6.95, -6.18, 2.28, 0.0, 0.0, 0.0, 0.0, 0.0, -2.43, -2.35, -4.52, -4.38, -7.13, -7.36, -8.18, -8.43, -7.76, -6.8, -6.4, -6.0, -5.27, -4.98, -3.85, -2.4, -1.11, 0.0, 1.11, 1.03, 2.04, 1.9, 1.71, 1.5, 1.52, 1.91, 5.2, 0.0, 0.0, 6.95, 10.28, 11.18, 8.22, 12.07, 11.87, 11.87, 11.71, 9.75, 9.83, 8.94, 9.83, 10.28, 9.83, 9.83, 8.82, 8.94, 9.21, 9.64, 11.28, 11.71, 10.73, 8.73, 4.72, 7.47, 12.07, 13.25, 13.5, 13.41, 13.86, 14.3, 14.53, 14.11, 12.6, 12.13, 11.2, 9.67, 6.56, 4.3, 0.93, -1.04, 0.0, 0.0, 0.0, 0.0, 0.0, 0.0, 0.0, 0.0, -8.85, -8.85, -7.59, -7.87, -7.87, -6.79, -7.44, -8.37, -7.21, -7.42, -8.38, -8.07, -6.77, -5.59, 2.28, 2.28, 0.0, 0.0, 0.0, 0.0, 0.0, -2.35, -2.35, -4.52, -4.52, -6.4, -6.6, -7.54, -7.98, -7.2, -6.54, -5.64, -5.04, -3.47, -2.18, -0.95, 0.0, 0.0, 0.0, 1.83, 1.67, 2.35, 3.01, 2.97, 1.44, 1.28, 0.0, 0.0, 0.0, 8.8, 8.4, 9.2, 10.28, 7.59, 8.22, 7.9, 7.9, 10.0, 9.83, 9.83, 8.05, 9.83, 9.6, 8.93, 8.8, 7.59, 0.0, 0.0, 0.0, -0.0, 10.28, 5.4, 2.91, 9.13, 11.3, 13.41, 13.41, 12.96, 11.91, 11.88, 12.07, 11.91, 11.85, 10.12, 10.99, 9.67, 6.33, 3.16, 0.82, 0.0, 4.8, 7.27, 5.9, 4.4, 0.0, -2.02, -2.72, -3.1, -3.04, -6.0, -4.81, -5.95, -4.96, -3.4, -6.64, -6.52, -6.7, -7.42, -8.3, -8.22, -6.4, -5.37, 2.28, 2.28, 2.28, 0.0, 0.0, 0.0, 0.0, -2.02, -2.02, -3.93, -3.93, -5.81, -5.81, -5.99, -7.98, -7.4, -6.72, -6.14, -4.23, -3.79, -2.31, -1.01, -0.98, 0.0, 0.0, 0.92, 0.85, 1.64, 1.51, 2.19, 1.38, 0.74, 0.0, 0.0, 0.0, 4.4, 7.27, 7.81, 7.9, 4.6, 0.0, 0.0, 0.0, 0.0, 8.4, 8.48, 8.94, 8.49, 8.0, 6.95, 7.27, 0.0, -9.83, 0.0, 0.0, -0.0, -8.49, -3.11, 0.96, 8.85, 10.38, 11.03, 10.84, 10.84, 10.84, 9.6, 10.0, 11.18, 10.41, 9.08, 8.22, 6.94, 3.91, 1.63, 0.0, 3.11, 8.03, 7.81, 6.17, 5.43, 2.71, 0.0, -1.33, -2.95, -6.42, -5.6, -4.24, -2.71, -2.28, -3.49, -3.65, -5.31, -5.95, -6.18, -6.39, -6.01, -5.69, -5.69, 1.96, 1.96, 1.96, 0.0, 0.0, 0.0, 0.0, 0.0, -2.02, -2.02, -4.05, -4.05, -5.81, -5.99, -6.16, -5.65, -5.23, -4.88, -4.47, -4.01, -2.45, -2.28, -1.0, 0.0, 0.0, 0.0, 0.87, 0.8, 0.78, 0.76, 0.76, 0.76, 0.0, 0.0, 0.0, 4.0, 8.18, 7.87, 5.0, 0.0, 0.0, 0.0, 0.0, 6.95, 6.64, 8.49, 8.49, 8.05, 8.05, 8.49, -0.0, 0.0, 0.0, 0.0, 0.0, 0.0, -7.6, -5.46, 0.0, 9.67, 10.28, 10.73, 10.28, 9.83, 8.4, 4.2, 3.8, 9.83, 9.97, 8.38, 3.99, 0.79, 0.0, -0.89, -1.39, 7.9, 10.55, 10.63, 9.57, 8.66, 7.43, 5.6, 4.24, 0.0, -5.95, -8.4, -6.58, -5.06, -4.6, -4.6, -4.2, -5.06, -5.37, -4.68, -5.36, -5.82, -5.44, -5.44, 1.96, 1.96, 2.02, 1.96, 0.0, 0.0, 0.0, 0.0, -2.02, -2.02, -2.09, -4.05, -4.18, -4.18, -5.49, -5.49, -4.95, -5.23, -4.88, -4.47, -2.72, -2.28, -1.07, 0.0, 0.0, 0.0, 0.0, 0.0, 0.0, 0.0, 0.0, 0.0, 0.0, 0.0, 0.0, 2.83, 5.21, 3.39, 0.0, 0.0, -3.39, 0.0, 0.0, 6.01, 6.64, 8.94, 8.94, 8.49, 8.49, 8.94, 8.94, 9.39, 6.64, 4.2, 4.2, 0.0, 0.0, 0.0, 7.9, 11.03, 10.6, 7.27, 6.95, 4.2, 6.64, 8.05, 0.0, 6.01, 8.4, 2.02, 0.0, -4.01, -5.43, -5.98, 0.0, 12.86, 13.77, 11.94, 10.92, 9.73, 8.85, 7.69, 6.42, 5.6, 2.82, -9.33, -7.6, -7.28, -6.01, -4.94, -5.46, -4.83, -4.56, -5.44, -6.17, -5.46, -5.21, -5.21, 1.96, 1.96, 2.02, 2.02, 0.0, 0.0, 0.0, 0.0, 0.0, -1.83, -1.83, -1.89, -3.69, -3.69, -3.69, -3.69, -4.95, -5.09, -3.24, -2.96, -2.65, -2.45, -2.21, 0.0, 0.0, 0.0, -0.87, -0.87, -0.87, -1.73, -1.73, -0.89, 0.0, 0.0, -1.04, 0.0, 0.0, -2.49, -2.1, -2.49, -4.4, 0.0, 0.0, 0.0, 6.32, 8.4, 8.48, 8.0, 8.4, 8.4, 8.4, 6.95, 6.95, 6.95, 5.46, 3.11, 3.11, 7.27, 8.93, 9.3, 7.9, 5.7, 3.11, 2.97, 2.97, 6.01, 7.2, -8.49, -9.33, -6.2, -3.29, -3.32, -4.43, -4.66, 11.38, 15.61, 13.42, 10.87, 8.93, 8.05, 6.99, 5.99, 4.38, 2.72, 0.0, -8.94, -8.94, -7.89, -7.07, -7.27, -6.14, -5.1, -5.37, -6.32, -5.98, -5.46, -5.21, -5.21, 3.81, 1.96, 1.96, 2.02, 1.96, 0.0, 0.0, 0.0, 0.0, 0.0, -1.83, -1.89, -1.94, -3.79, -3.69, -5.37, -3.58, -3.79, -1.73, -1.51, -2.57, -3.62, -3.79, -3.59, -1.51, -2.05, -1.96, -3.04, -3.12, -2.97, -3.03, -2.09, -1.05, 0.0, 0.0, -0.96, -2.39, -3.88, -3.45, -5.0, -3.25, 0.0, 0.0, 4.4, 6.95, 6.95, 8.18, 6.64, 6.64, 6.64, 6.95, 6.95, 6.95, 6.95, 6.95, 7.27, 5.46, 5.95, 6.2, 6.2, 3.39, 3.25, 3.11, 2.69, 6.32, 8.49, 8.49, 0.0, -6.95, -6.7, -1.38, 1.83, 2.93, 4.4, 6.58, 6.72, 3.79, 1.26, 1.94, 2.72, 0.95, 0.0, 0.0, 0.0, 0.0, -8.55, -10.28, -10.6, -10.41, -9.6, -6.95, -5.63, -6.32, -6.87, -6.95, -5.46, -6.42, -6.42, 3.81, 3.81, 1.96, 1.72, 1.72, 1.72, 0.0, 0.0, 0.0, 0.0, 0.0, -1.89, -1.94, -1.94, -3.79, -3.69, -3.58, -3.58, -2.57, -2.15, -3.69, -5.5, -7.2, -7.8, -6.72, -4.75, -5.23, -4.73, -4.67, -3.56, -2.47, -1.24, -1.16, 0.0, 0.0, -1.08, -1.83, -2.44, -2.31, -1.4, -0.89, 0.0, 0.0, 2.04, 2.83, 4.8, 4.4, 4.4, 5.21, 5.21, 6.64, 6.64, 6.64, 7.81, 7.44, 6.64, 7.59, 5.9, 3.25, 2.6, 0.0, 0.0, 0.0, 0.0, 8.49, 8.06, 8.48, 9.39, 2.49, 2.52, 3.94, 5.56, 5.51, 3.95, 0.85, -2.95, -6.74, -8.2, -4.67, -2.64, -1.89, -1.01, -2.24, -2.63, -1.71, -2.19, 0.0, 3.25, 0.0, 0.0, -5.95, -5.98, -7.44, -6.95, -7.33, -7.27, -6.42, -6.42, 3.36, 3.36, 3.36, 1.72, 1.72, 1.72, 1.72, 0.0, 0.0, 0.0, 0.0, 0.0, -1.94, -1.73, -1.73, -3.39, -3.2, -5.18, -5.8, -5.34, -5.96, -6.14, -6.72, -6.66, -7.12, -5.37, -3.16, -3.33, -2.47, -1.27, 0.0, 0.0, 0.0, 0.0, 0.0, 0.0, 0.0, -0.86, -0.83, -0.73, -0.72, 0.0, 0.0, 1.62, 2.47, 3.39, 3.65, 4.4, 4.2, 4.2, 2.83, 4.0, 6.32, 7.81, 8.18, 7.15, 8.03, 7.27, 4.8, 0.0, 0.0, 0.0, 0.0, 6.95, 8.94, 8.48, 8.91, 9.83, 9.6, 8.82, 9.17, 8.43, 7.11, 4.1, -1.7, -7.6, -12.4, -12.45, -10.95, -8.05, -4.67, -2.88, -2.01, -1.1, 0.0, 0.0, 2.1, 3.65, 2.23, 1.45, -1.54, -6.21, -6.21, -5.46, -7.33, -6.64, -5.86, -5.86, 3.36, 3.36, 3.36, 3.36, 1.72, 1.72, 1.72, 1.77, 0.0, 0.0, 0.0, 0.0, 0.0, -1.73, -1.73, -3.39, -3.3, -4.66, -5.48, -6.84, -5.37, -4.75, -4.62, -5.5, -5.0, -4.61, -3.21, -2.05, -1.03, 0.0, 0.0, 0.0, 0.0, 0.0, 0.0, 0.0, 0.0, 0.0, 0.0, 0.0, 0.0, 0.0, 0.78, 1.54, 2.35, 2.99, 3.82, 2.39, 2.28, 2.17, 2.69, 2.69, 6.01, 8.48, 7.44, 8.8, 9.04, 9.6, 7.59, 0.0, -8.0, -8.4, 0.0, 9.39, 9.39, 9.11, 9.21, 9.83, 10.28, 11.18, 11.61, 11.03, 9.55, 5.94, -9.02, -11.94, -14.82, -15.78, -14.62, -12.43, -9.39, -5.62, -2.98, -1.02, 0.0, 0.0, 0.0, 0.0, 0.0, 0.0, -2.71, -5.2, -5.64, -4.44, -5.1, -6.01, -5.36, -5.36, 3.36, 3.36, 3.36, 3.36, 3.36, 1.72, 1.77, 1.58, 1.63, 0.0, 0.0, 0.0, 0.0, 0.0, -1.73, -1.56, -2.98, -2.89, -4.0, -5.23, -4.12, -3.9, -3.69, -3.69, -3.72, -3.42, -3.3, -2.16, -2.11, -1.0, -1.03, 0.0, 0.0, 0.0, 0.0, 0.0, 0.0, 0.0, 0.81, 0.77, 0.76, 0.79, 1.62, 1.6, 2.12, 2.82, 1.93, 2.28, 2.17, 2.06, 3.6, 4.71, 6.01, 8.06, 8.48, 8.67, 9.39, 9.89, 8.38, 4.96, -8.94, -8.94, 0.0, 8.94, 8.94, 9.26, 9.39, 9.39, 9.83, 9.11, 7.9, 10.41, 4.55, 3.33, -11.18, -9.83, -13.72, -14.68, -15.44, -15.14, -12.07, -8.84, -6.2, -4.66, -3.12, -1.98, -1.02, -2.04, -3.82, -3.68, -3.68, -5.0, -5.45, -4.6, -4.71, -4.71, -3.8, -3.8, 3.36, 3.36, 3.36, 3.36, 3.36, 3.36, 1.53, 1.58, 1.63, 0.0, 0.0, 0.0, 0.0, 0.0, 0.0, -1.56, -1.56, -2.89, -4.12, -4.23, -4.01, -4.12, -3.9, -3.32, -3.42, -3.47, -3.42, -2.16, -2.16, -2.11, -1.0, -1.0, 0.0, 0.0, 0.0, 0.0, 0.0, 0.95, 0.84, 1.44, 1.36, 1.5, 1.69, 1.69, 2.35, 1.49, 0.0, 0.0, 2.17, 4.0, 4.0, 3.8, 4.71, 6.01, 8.06, 8.49, 8.05, 8.94, 7.27, 5.29, 0.0, -6.01, 3.8, 8.33, 8.82, 9.39, 9.39, 9.64, 8.94, 9.33, -0.0, -4.24, 0.0, 1.87, 3.78, -10.12, -12.52, -12.14, -12.79, -14.01, -13.99, -11.44, -9.43, -8.29, -6.79, -5.57, -4.44, -4.4, -4.56, -1.33, -2.7, -2.97, -4.2, -6.32, -6.01, -4.71, -4.0, -4.0, 4.87, 4.87, 4.87, 3.36, 3.36, 3.36, 3.01, 1.58, 1.63, 1.68, 0.0, 0.0, 0.0, 0.0, 0.0, -1.56, -1.56, -2.72, -2.72, -2.65, -3.9, -4.12, -4.12, -3.72, -3.52, -3.28, -2.25, -2.16, -2.16, -2.11, -1.06, -1.03, -0.98, 0.0, 0.0, 0.0, 0.0, 0.0, 0.89, 1.5, 1.36, 1.39, 1.5, 1.69, 0.82, 0.78, 0.0, 0.77, 1.75, 1.68, 2.35, 3.25, 3.8, 4.46, 6.01, 8.06, 8.49, 7.6, 6.32, 1.84, 0.0, -3.8, 6.32, 9.21, 9.39, 9.39, 9.39, 9.39, 10.28, 0.0, -8.94, -5.8, -1.18, 2.42, 4.08, 4.66, 3.01, -6.31, -13.19, -10.8, -12.66, -12.97, -11.8, -10.75, -8.59, -6.41, -5.7, -4.74, -3.32, 6.32, 6.95, 3.11, 0.0, -2.97, -7.44, -6.32, -4.96, -4.96, 4.87, 4.87, 4.87, 4.87, 3.36, 3.01, 3.01, 3.1, 1.63, 1.63, 1.68, 0.0, 0.0, 0.0, 0.0, 0.0, -1.42, -1.42, -1.42, -2.57, -2.57, -3.9, -4.12, -3.82, -3.72, -3.37, -2.28, -2.25, -2.3, -2.3, -2.25, -1.13, -1.1, -1.03, 0.0, 0.0, 0.0, 0.0, 0.0, 0.79, 1.39, 1.36, 1.39, 0.7, 0.79, 0.0, 0.0, 0.71, 0.74, 1.54, 1.54, 1.52, 1.62, 2.06, 4.71, 6.01, 7.2, 5.69, 0.0, 0.0, 0.0, 0.0, 6.32, 9.39, 9.39, 8.94, 10.28, 10.73, 10.28, 7.27, -7.59, -5.8, -0.89, 0.81, 3.89, 7.0, 7.22, 2.66, -8.53, -11.62, -12.04, -12.9, -12.42, -10.48, -8.53, -6.59, -4.56, -3.8, 2.17, 7.6, 6.64, 4.99, 3.08, 0.0, -8.18, -9.39, -4.2, -4.2, 4.87, 4.87, 4.87, 4.38, 4.38, 3.01, 3.01, 3.01, 3.1, 1.63, 1.51, 0.0, 0.0, 0.0, 0.0, 0.0, 0.0, -1.42, -1.42, -1.3, -2.57, -2.57, -2.65, -2.72, -3.72, -2.52, -2.28, -2.19, -2.25, -2.25, -2.25, -1.13, -1.13, -1.13, -1.1, -1.1, 0.0, 0.0, 0.0, 0.0, 0.0, 0.0, 0.67, 0.65, 0.68, 0.0, 0.0, 0.0, 0.0, 0.74, 0.74, 0.74, 0.0, 0.0, 0.0, 2.4, 3.6, 5.37, 5.06, 0.0, 0.0, 0.0, 2.6, 8.0, 9.83, 9.21, 10.52, 10.28, 9.83, 4.6, -2.71, -4.58, -3.04, -0.86, 3.2, 5.56, 5.47, 3.59, -2.45, -11.13, -11.18, -12.94, -12.33, -10.19, -8.93, -7.52, -5.64, -3.8, 2.06, 4.96, 0.0, 0.0, 2.82, 1.44, -6.2, -10.73, 0.0, 0.0, 4.87, 4.87, 4.38, 4.38, 4.38, 4.38, 3.01, 3.01, 3.1, 1.42, 1.47, 1.51, 0.0, 0.0, 0.0, 0.0, 0.0, 0.0, -1.3, -1.3, -1.3, -2.57, -2.57, -2.57, -2.45, -2.45, -2.45, -2.28, -2.34, -1.18, -1.1, -1.1, -1.13, -1.21, -1.21, -1.18, -1.18, -1.13, 0.0, 0.0, 0.0, 0.0, 0.74, 0.65, 1.36, 1.3, 0.0, 0.0, 0.0, 0.0, 0.0, 0.0, 0.0, 0.0, 0.0, 0.0, 0.0, 0.0, 5.06, 7.6, 0.0, 0.0, 2.39, 8.4, 9.21, 10.96, 10.41, 9.2, 0.0, 0.0, 0.0, -2.93, -4.28, -4.28, -1.97, -0.79, -0.79, 0.0, 0.0, -10.38, -9.81, -13.02, -13.34, -11.16, -9.57, -9.27, -7.27, -3.8, -1.84, 0.0, -2.02, -3.53, 0.0, 1.9, 0.0, 0.0, 0.0, 0.0, 4.87, 4.87, 4.38, 4.38, 4.38, 4.38, 4.38, 3.1, 3.1, 2.81, 1.47, 1.51, 1.56, 0.0, 0.0, 0.0, 0.0, 0.0, 0.0, -1.26, -1.3, -1.3, -1.3, -1.3, -2.38, -1.2, -1.2, -1.23, -1.18, -1.18, -1.18, -1.18, -1.18, -1.18, -1.18, -1.18, -1.18, -1.21, 0.0, 0.0, 0.0, 0.0, 0.0, 0.0, 0.93, 2.06, 0.71, -1.91, -3.34, -1.54, -1.47, -1.47, -0.71, -0.73, 0.0, 0.0, 0.0, 0.0, 0.0, 0.0, 0.0, 0.0, 0.0, 8.91, 10.28, 10.14, 10.18, 9.2, 4.4, 0.0, 0.0, -1.38, -1.9, -5.43, -8.31, -9.17, -7.91, -4.81, -0.92, -2.37, -9.39, -12.64, -13.71, -12.42, -9.57, -7.97, -6.95, -6.42, -5.95, -6.2, -5.75, -4.32, -1.5, 0.0, 2.4, 3.14, 3.82, 3.82, 4.38, 4.38, 4.38, 4.38, 4.38, 4.38, 4.38, 3.1, 3.1, 2.81, 2.81, 1.51, 1.51, 0.0, 0.0, 0.0, 0.0, 0.0, 0.0, 0.0, -1.3, -1.3, -1.3, -1.3, -1.3, -1.2, -1.17, -1.2, -1.15, -1.15, -1.15, -1.15, -1.15, -1.15, -2.34, -1.18, -1.18, -1.27, -1.21, 0.0, 0.0, 0.0, 0.0, 0.0, 0.0, 0.98, 0.0, -2.2, -4.71, -4.93, -3.53, -2.57, -2.06, -1.36, -0.67, -0.74, -1.01, -1.18, 0.0, 0.0, 0.0, -2.17, 0.0, 9.39, 9.39, 9.39, 9.83, 8.93, 4.2, -2.39, -5.75, -2.62, 0.0, -1.62, -7.11, -10.21, -10.21, -8.43, -4.52, 0.0, -8.05, -12.77, -12.6, -12.42, -10.51, -9.97, -9.48, -9.17, -8.15, -8.01, -5.4, 0.0, 3.44, 0.0, 2.32, 4.43, 4.65, 4.65, 4.24, 4.24, 4.38, 4.38, 4.38, 4.38, 4.38, 4.52, 2.81, 2.89, 2.89, 2.81, 1.38, 1.38, 0.0, 0.0, 0.0, 0.0, 0.0, 0.0, 0.0, 0.0, 0.0, -1.3, -1.3, -1.2, -1.17, -1.13, -1.17, -1.11, -2.28, -2.21, -2.21, -2.21, -2.28, -2.28, -1.27, -1.27, -1.27, -1.3, -1.27, 0.0, 0.0, 0.0, -0.81, -2.02, -2.32, -1.19, -1.77, -1.9, -1.44, -2.04, -1.45, -1.93, -1.26, -0.67, -0.89, -1.07, -1.25, 0.0, -2.26, -2.69, 0.0, 8.0, 8.94, 8.49, 7.6, 6.95, 0.0, -2.02, -5.9, -3.39, 0.0, 0.78, -0.79, -7.04, -9.31, -7.93, -7.5, -3.58, -3.24, -12.56, -14.23, -13.59, -13.02, -12.49, -11.5, -10.01, -8.87, -4.81, 0.0, 5.8, 5.11, 4.65, 3.41, 4.43, 5.18, 5.18, 4.24, 4.24, 4.24, 4.38, 4.38, 4.38, 4.38, 4.52, 2.81, 2.89, 2.89, 2.89, 1.34, 1.42, 1.42, 0.0, 0.0, 0.0, 0.0, 0.0, 0.0, 0.0, 0.0, 0.0, -1.3, -1.3, -1.17, -1.19, 0.0, -1.13, -2.38, -2.45, -2.45, -2.38, -2.38, -2.45, -2.45, -1.27, -1.27, -1.27, -1.27, -1.2, -1.06, -0.86, -1.56, -3.07, -3.56, -1.13, 0.0, 0.0, 0.0, 0.0, -0.71, -0.74, -0.72, -1.08, -0.76, -1.01, -1.25, -1.18, -2.12, 0.0, 3.8, 6.01, 8.0, 8.49, 8.05, -9.39, -4.6, -3.39, -2.39, 10.28, 0.0, 0.0, 0.8, -2.37, -7.0, -8.85, -8.21, -6.69, -4.35, -3.89, -8.77, -12.46, -12.63, -12.15, -12.01, -10.4, -7.93, -2.54, 2.45, 3.96, 4.93, 4.65, 4.28, 3.96, 4.12, 4.12, 4.24, 4.24, 4.24, 4.38, 4.38, 4.38, 4.38, 4.52, 2.81, 2.89, 2.89, 2.89, 2.64, 1.34, 1.42, 1.42, 0.0, 0.0, 0.0, 0.0, 0.0, 0.0, 0.0, 0.0, -1.26, -1.26, -1.26, -1.1, -2.11, -1.56, -2.43, -2.57, -2.65, -2.45, -2.45, -2.45, -2.45, -2.72, -1.37, -1.37, -1.37, -1.34, -1.1, -0.93, -0.76, -1.64, -1.83, -1.06, -1.15, -1.05, -0.85, 0.0, 0.0, -0.8, -0.79, 0.0, 0.0, -0.88, 0.0, 0.0, 0.0, 3.4, 6.32, 5.69, 7.6, 8.05, 8.05, 0.0, -5.46, -2.6, 2.49, 10.18, 0.0, -5.31, -2.49, -0.83, -2.43, -11.21, -11.45, -7.43, -4.66, -2.39, -1.78, -3.72, -6.31, -7.56, -7.56, -8.21, -5.02, 0.0, 1.77, 4.75, 4.24, 3.6, 3.04, 4.28, 3.68, 3.68, 4.24, 4.24, 4.24, 4.24, 4.38, 4.38, 4.38, 4.52, 4.11, 2.89, 2.89, 2.98, 2.64, 1.34, 1.38, 1.42, 1.42, 0.0, 0.0, 0.0, 0.0, 0.0, 0.0, 0.0, -1.26, -1.17, -1.17, -2.24, -2.24, -2.09, -2.24, -2.5, -2.57, -2.57, -2.65, -2.65, -2.65, -2.65, -2.72, -1.37, -1.37, -1.37, -1.26, -0.99, -0.83, -0.83, -0.96, -1.06, -1.15, -1.09, -1.76, -1.68, -0.85, -0.81, -0.73, 0.0, 0.0, 0.0, 0.0, 0.0, 0.0, 3.6, 5.69, 6.01, 6.8, 5.37, 8.05, 8.05, 0.0, 0.0, 5.46, 8.22, 0.0, -6.0, -6.37, -2.48, 0.8, 0.0, -9.48, -8.66, -5.67, -3.58, -2.45, -2.52, -1.88, -1.65, -1.62, -1.53, 0.0, 0.0, 2.62, 3.82, 3.47, 2.93, 1.84, 2.71, 2.71, 2.71, 4.24, 4.24, 4.24, 4.24, 4.38, 4.38, 4.38, 4.52, 4.24, 2.89, 2.98, 2.98, 2.72, 2.64, 1.34, 1.38, 1.38, 0.0, 0.0, 0.0, 0.0, 0.0, 0.0, 0.0, -1.3, -1.17, -1.17, -1.13, -2.24, -2.31, -2.31, -2.31, -2.31, -2.5, -2.57, -2.57, -2.65, -2.65, -2.72, -1.37, -1.37, -1.34, -1.26, 0.0, -0.86, -0.83, -0.96, -1.03, -1.11, -1.08, -1.92, -1.84, -1.68, -1.6, -0.77, -0.76, 0.0, 0.0, 0.0, 0.0, 0.96, 3.6, 3.6, 5.69, 6.01, 6.01, 5.37, 0.0, 0.0, 0.0, 6.95, 5.2, 0.0, -2.81, -3.98, -1.55, 3.11, 5.47, 3.32, 0.0, -5.64, -7.2, -6.3, -3.59, -0.95, 0.0, 0.0, 0.0, 0.0, 0.93, 2.08, 3.21, 3.06, 1.77, 0.86, 0.86, 1.71, 1.71, 4.24, 4.24, 4.24, 4.24, 4.38, 4.38, 4.52, 4.52, 4.24, 2.89, 2.98, 2.98, 2.72, 2.64, 1.34, 1.38, 1.38, 0.0, 0.0, 0.0, 0.0, 0.0, 0.0, 0.0, -1.2, -1.17, -1.17, -1.13, -2.24, -2.31, -2.31, -2.31, -2.24, -2.24, -2.43, -2.5, -2.57, -2.57, -2.65, -2.65, -1.46, -1.46, 0.0, 0.0, 0.0, -0.83, -0.93, -0.99, -2.2, -2.13, -2.08, -1.84, -1.93, -1.84, -0.85, -0.8, 0.0, 0.0, 0.0, 0.0, 0.0, 0.88, 3.6, 3.4, 3.6, 4.0, 3.6, 6.01, 0.0, 0.0, 0.0, 7.27, 2.63, 0.0, -0.82, -0.8, 0.8, 3.14, 3.13, 0.0, -3.63, -6.35, -7.43, -4.52, 0.0, 1.11, 0.92, 0.86, 0.89, 0.93, 2.0, 2.19, 2.08, 0.97, 0.83, 0.86, 0.86, 0.86, 4.1, 4.1, 4.24, 4.24, 4.38, 4.38, 4.52, 4.52, 4.24, 2.89, 2.98, 2.98, 2.98, 2.72, 1.34, 1.34, 1.38, 0.0, 0.0, 0.0, 0.0, 0.0, 0.0, 0.0, -1.2, -1.17, -1.17, -1.13, -2.24, -2.31, -2.31, -2.31, -2.24, -2.43, -2.43, -2.43, -2.43, -2.5, -2.57, -2.88, -1.46, -1.46, 0.0, 0.0, 0.0, 0.0, -0.89, -2.06, -2.13, -2.13, -2.16, -2.19, -2.02, -1.93, -1.75, -0.89, -0.84, 0.0, 0.0, 0.0, 0.0, 0.0, 0.0, 3.4, 3.6, 4.0, 3.6, 6.01, 0.0, 0.0, -0.0, 10.28, 8.85, 2.89, 0.0, -2.35, -2.43, -2.34, -2.4, -3.01, -2.16, -1.47, -2.91, -2.54, 0.0, 0.0, 0.0, 0.93, 0.93, 1.01, 1.05, 1.05, 1.05, 1.0, 0.0, 0.0, 0.0, 0.0, 4.1, 4.1, 4.24, 4.24, 4.38, 4.38, 4.52, 4.52, 4.24, 2.89, 2.98, 2.98, 2.98, 2.98, 1.38, 1.34, 1.34, 0.0, 0.0, 0.0, 0.0, 0.0, 0.0, 0.0, -1.2, -1.17, -1.13, -1.13, -2.24, -2.24, -2.31, -2.24, -2.24, -2.43, -2.43, -2.43, -2.35, -2.72, -2.72, -2.8, -1.42, -1.6, -1.47, 0.0, 0.82, 0.0, -0.89, -2.06, -2.4, -2.32, -2.24, -2.28, -2.1, -2.13, -1.94, -1.84, -0.84, -0.94, 0.0, 0.0, 0.0, 0.0, 0.0, 0.0, 0.0, 0.0, 0.0, 0.0, 0.0, 0.0, -0.0, 7.27, 5.4, 1.06, 0.0, -0.76, -2.35, -4.71, -5.72, -5.05, -1.46, 0.0, 0.0, -1.21, -1.83, 0.0, 0.0, 0.97, 0.97, 0.97, 0.97, 1.05, 0.97, 0.0, 0.0, 0.0, 0.0, 0.0, 4.1, 4.1, 4.1, 4.24, 4.38, 4.38, 4.52, 4.52, 4.24, 2.89, 2.98, 2.98, 2.98, 2.98, 1.38, 1.34, 1.34, 1.34, 0.0, 0.0, 0.0, 0.0, 0.0, 0.0, -1.3, -1.17, -1.13, -1.13, -2.18, -2.18, -2.24, -2.24, -2.24, -2.43, -3.47, -3.58, -2.56, -2.56, -2.72, -2.98, -3.07, -1.56, -1.63, -1.33, 0.0, 0.0, -1.96, -2.56, -2.81, -2.72, -2.54, -2.37, -2.33, -3.25, -2.83, -1.84, -1.75, -0.94, -1.01, -0.95, -0.89, -0.82, -1.05, 0.0, 0.0, 0.0, 0.0, 0.0, -5.69, 0.0, 0.0, -0.0, 0.0, 0.0, 1.26, 3.22, 0.78, -2.32, -4.75, -4.3, -2.19, 0.0, 0.0, 0.0, 0.0, 0.0, 0.0, 0.0, 1.09, 1.0, 0.89, 0.0, 0.0, 0.0, 0.0, -0.93, -0.86, 0.0, 4.1, 4.1, 4.1, 4.24, 4.24, 4.38, 4.38, 4.52, 2.81, 2.89, 2.89, 2.89, 2.98, 1.51, 1.34, 1.34, 1.34, 0.0, 0.0, 0.0, 0.0, 0.0, 0.0, 0.0, -1.3, -1.3, -1.23, -1.1, -2.18, -2.18, -2.18, -2.24, -2.24, -3.58, -3.47, -3.47, -3.76, -2.48, -2.81, -2.89, -2.89, -2.98, -2.81, -2.72, -3.34, -2.54, -1.17, -1.56, 0.0, 0.0, 0.0, -1.38, -1.18, -2.13, -1.94, -1.84, -1.0, -0.94, -1.07, -1.01, -0.95, -1.6, -2.4, 0.0, 0.0, 0.0, 0.0, 0.0, -5.37, 0.0, 0.0, 0.0, -7.59, -5.0, 0.0, 3.69, 3.14, 0.77, -1.56, -3.55, -3.68, -1.13, 0.0, 0.0, 0.0, 0.0, 0.0, 0.0, 0.0, 0.0, 0.0, 0.0, 0.0, 0.0, -0.8, -0.86, -1.84, -1.84, 3.96, 3.96, 4.1, 4.1, 4.24, 4.24, 4.38, 4.52, 3.1, 2.81, 2.89, 2.89, 2.89, 1.47, 1.34, 1.34, 1.34, 0.0, 0.0, 0.0, 0.0, 0.0, 0.0, 0.0, -1.26, -1.26, -1.23, -1.19, -2.35, -2.11, -2.11, -2.11, -3.22, -3.47, -3.47, -3.65, -2.48, -2.63, -2.72, -2.81, -2.81, -2.81, -2.72, -2.45, -4.12, -4.24, -1.23, 0.0, 0.0, 0.0, 0.0, 0.0, 0.0, -1.04, -0.99, -1.05, -1.0, 0.0, -1.14, -1.07, -1.01, -1.84, -1.84, -2.4, 0.0, 0.0, 0.0, 0.0, -5.06, 0.0, 0.0, -8.49, -10.28, -8.8, -8.22, -3.25, 0.0, 1.59, 1.55, 0.0, -1.84, 0.0, 0.0, 0.96, 0.96, 0.0, 0.0, 0.0, 0.0, 0.0, 0.0, -0.77, -0.77, -1.6, -1.6, -1.84, -1.84, -1.84, 3.96, 3.96, 4.1, 4.1, 4.24, 4.24, 4.38, 4.38, 3.01, 2.81, 2.81, 2.89, 2.89, 1.47, 1.34, 1.34, 1.34, 0.0, 0.0, 0.0, 0.0, 0.0, 0.0, 0.0, -1.26, -1.26, -1.23, -1.19, -2.28, -2.28, -2.04, -2.04, -3.25, -3.36, -3.47, -3.53, -2.63, -2.63, -2.63, -2.63, -2.72, -2.72, -2.63, -2.16, -3.06, -3.14, -2.56, -1.3, -1.21, 0.0, 0.0, 0.0, 0.0, 0.0, 0.0, 0.0, 0.0, 0.0, 0.0, 0.0, -1.07, -1.07, -2.12, -2.4, -3.4, 0.0, 0.0, 0.0, 0.0, 7.6, 0.0, -8.49, -9.39, -8.55, -9.3, -7.24, -2.81, 0.78, 4.8, 4.7, 4.41, 4.67, 2.64, 0.77, 0.0, 0.0, 0.0, -0.8, -1.6, -1.6, -1.6, -1.44, -2.22, -2.31, -2.37, -2.53, -2.53, -2.53, 3.96, 3.96, 4.1, 4.1, 4.24, 4.24, 4.38, 4.38, 3.1, 3.1, 2.81, 2.89, 1.47, 1.47, 1.34, 1.34, 0.0, 0.0, 0.0, 0.0, 0.0, 0.0, 0.0, -1.26, -1.26, -1.26, -1.23, -2.35, -2.28, -2.2, -2.2, -3.25, -3.25, -3.25, -3.53, -2.4, -2.54, -2.63, -2.63, -2.63, -2.63, -2.63, -2.54, -2.08, -2.0, -2.16, -2.4, -1.21, -1.21, -1.09, -1.01, 0.0, 0.0, 0.0, 0.0, 0.0, 0.0, 0.0, 0.0, 0.0, 0.0, 0.0, -1.01, -1.98, -2.54, 0.0, 0.0, 2.26, 3.4, 5.37, 0.0, -7.6, -8.91, -9.2, -7.59, -5.75, -1.38, 0.92, 3.12, 7.0, 9.63, 9.69, 6.73, 3.01, 0.0, -0.79, -1.51, -2.54, -3.23, -3.32, -3.29, -2.88, -3.11, -3.11, -3.11, -3.42, -3.42, -3.42, 4.39, 4.39, 4.1, 4.1, 4.1, 4.24, 4.24, 3.01, 3.1, 3.1, 2.81, 2.81, 1.47, 1.47, 1.47, 1.34, 0.0, 0.0, 0.0, 0.0, 0.0, 0.0, 0.0, -1.26, -1.26, -1.26, -1.23, -2.35, -2.28, -2.28, -2.2, -3.14, -3.14, -3.41, -2.32, -2.54, -2.54, -2.54, -2.91, -2.81, -2.54, -2.54, -2.54, -2.08, -2.0, -2.16, -2.32, -2.32, -2.54, -2.16, -2.0, -1.76, -0.81, -0.85, -0.89, -1.0, -1.0, -1.0, 0.0, 0.0, 0.0, 0.0, -1.01, -0.95, 0.0, 0.0, 0.0, 0.0, 0.0, 3.6, -5.69, -7.6, -8.48, -8.18, -4.6, 0.0, 0.0, 0.0, 2.49, 6.8, 10.21, 11.04, 8.94, 5.84, 2.88, 0.0, -1.77, -4.0, -4.36, -5.8, -4.9, -4.3, -4.17, -4.06, -4.17, -4.47, -4.47, -4.47, 4.39, 4.39, 4.55, 4.1, 4.71, 4.24, 4.24, 3.01, 3.01, 3.1, 2.81, 1.42, 1.47, 1.47, 1.47, 0.0, 0.0, 0.0, 0.0, 0.0, 0.0, 0.0, 0.0, -1.26, -1.26, -1.26, -2.43, -2.35, -2.28, -2.28, -2.2, -3.14, -3.14, -2.24, -2.24, -2.45, -2.45, -2.72, -2.81, -2.81, -2.54, -2.54, -2.54, -2.16, -2.0, -2.16, -2.24, -2.45, -2.45, -2.28, -1.92, -1.76, -1.6, -0.85, -0.89, -0.89, -1.0, -0.94, -1.0, -0.94, -1.01, -1.01, -0.95, 0.0, 0.0, 0.0, 0.0, 0.0, 0.0, 0.0, -6.01, -8.49, -8.94, -6.64, 0.0, 0.0, 0.0, 1.38, 5.36, 7.62, 8.31, 7.77, 8.07, 8.17, 7.06, 3.57, 0.0, -4.0, -5.43, -6.92, -5.98, -5.57, -5.35, -5.0, -5.0, -5.0, -5.0, -5.0, 4.39, 4.39, 4.55, 4.55, 4.55, 4.71, 4.38, 3.01, 3.01, 3.01, 2.81, 1.42, 1.42, 1.47, 1.47, 0.0, 0.0, 0.0, 0.0, 0.0, 0.0, 0.0, -1.26, -1.26, -1.26, -1.26, -2.43, -2.35, -2.28, -2.28, -2.2, -2.2, -2.32, -2.24, -2.45, -2.37, -2.62, -2.72, -2.72, -2.72, -2.72, -2.45, -2.45, -2.37, -2.0, -2.16, -2.24, -2.45, -2.37, -2.19, -2.1, -2.71, -1.84, -1.75, -1.75, -1.65, -1.84, -1.84, -1.84, -2.09, -1.07, -0.95, -0.89, 0.0, 0.0, 0.0, 0.0, 0.0, 0.0, 0.0, 0.0, -8.49, -8.94, -9.39, 0.0, 0.0, 2.6, 5.98, 7.85, 8.32, 6.76, 5.67, 8.02, 10.29, 9.6, 5.84, 1.43, -1.51, -6.94, -7.95, -7.95, -7.14, -6.41, -6.15, -6.0, -6.0, -6.0, -6.0, 4.39, 4.39, 4.55, 4.55, 4.55, 4.71, 3.01, 3.01, 3.01, 3.1, 3.1, 1.42, 1.47, 1.47, 0.0, 0.0, 0.0, 0.0, 0.0, 0.0, 0.0, -1.23, -1.26, -1.26, -1.26, -1.23, -2.43, -2.35, -2.28, -2.2, -2.2, -2.4, -2.32, -2.45, -2.45, -2.37, -2.62, -2.62, -2.62, -2.72, -2.72, -2.45, -2.45, -2.37, -2.08, -2.24, -2.32, -2.45, -2.28, -2.1, -2.02, -2.83, -2.83, -2.7, -1.84, -1.95, -2.67, -2.51, -2.51, -2.09, -2.09, -1.84, -1.6, -0.88, -0.96, -3.0, -3.0, 0.0, 0.0, 0.0, 0.0, 0.0, -9.39, -9.39, -9.39, 0.0, 7.27, 10.18, 10.0, 7.56, 5.18, 5.28, 7.71, 9.42, 8.34, 5.14, 0.0, -3.34, -6.45, -7.73, -8.22, -8.22, -7.9, -7.42, -6.98, -6.7, -6.7, -6.7, 4.39, 4.39, 4.55, 4.55, 4.55, 3.25, 3.36, 3.01, 3.01, 3.1, 1.58, 1.42, 1.47, 1.47, 0.0, 0.0, 0.0, 0.0, 0.0, 0.0, 0.0, -1.23, -1.26, -1.26, -1.23, -1.23, -2.43, -2.35, -2.28, -2.28, -2.4, -2.4, -2.32, -2.45, -2.45, -2.62, -2.62, -2.62, -2.62, -2.62, -2.62, -2.37, -2.37, -2.37, -2.37, -2.24, -2.32, -2.45, -2.28, -2.1, -2.95, -2.83, -2.83, -2.83, -2.98, -2.83, -2.83, -2.67, -2.51, -2.82, -2.82, -1.72, -1.84, -1.7, -1.83, -3.47, -5.6, -6.0, 0.0, 0.0, 0.0, 0.0, 0.0, -9.83, -9.39, 0.0, 9.83, 9.83, 10.18, 6.98, 4.9, 5.18, 5.8, 5.67, 4.72, 1.44, 0.0, -0.93, -5.63, -6.17, -6.2, -8.49, -8.94, -8.22, -7.9, -6.87, -6.87, -6.87, 4.39, 4.39, 4.39, 4.55, 3.14, 3.14, 3.25, 3.01, 3.01, 1.58, 1.58, 1.47, 1.47, 0.0, 0.0, 0.0, 0.0, 0.0, 0.0, 0.0, 0.0, -1.34, -1.23, -1.23, -1.23, -1.23, -2.43, -2.35, -2.28, -2.48, -2.4, -2.4, -2.32, -2.54, -2.45, -2.62, -2.62, -2.52, -2.52, -2.52, -2.62, -2.37, -2.37, -2.28, -2.37, -2.45, -2.32, -2.45, -2.37, -3.21, -2.95, -2.83, -2.83, -2.83, -2.98, -2.83, -2.83, -2.67, -2.99, -2.82, -2.82, -2.64, -2.8, -2.76, -2.76, -3.22, -6.0, -6.26, -6.71, -7.15, -7.6, -8.49, 0.0, -6.95, -9.83, -6.64, 0.0, 9.83, 9.2, 6.2, 4.58, 4.08, 3.6, 2.64, 0.0, 0.0, 0.0, 0.0, -4.37, -6.79, -3.49, -5.1, -8.38, -9.58, -8.58, -7.27, -7.27, -7.27, 4.39, 4.39, 4.39, 3.14, 3.14, 3.14, 3.25, 3.01, 3.01, 1.58, 1.58, 1.63, 1.47, 0.0, 0.0, 0.0, 0.0, 0.0, 0.0, 0.0, 0.0, -1.34, -1.34, -1.34, -1.23, -1.23, -1.19, -2.35, -2.48, -2.4, -2.4, -2.32, -2.54, -2.54, -2.45, -2.62, -2.62, -2.52, -2.52, -2.52, -2.52, -2.52, -2.28, -2.28, -2.28, -2.28, -2.37, -2.37, -3.47, -3.21, -3.08, -2.95, -2.83, -2.97, -3.14, -3.8, -3.6, -3.6, -3.77, -3.77, -3.55, -3.33, -2.8, -2.6, -3.63, -4.11, -5.58, -6.51, -6.71, -6.94, -7.37, -8.05, -8.06, -8.0, -9.83, -9.39, -0.0, 9.83, 4.6, 3.39, 2.71, 3.19, 2.37, 0.0, 0.0, 0.0, 0.0, 0.0, -1.52, -6.64, -4.37, -2.98, -6.64, -9.11, -9.83, -0.0, -0.0, -0.0, 3.04, 3.04, 3.04, 3.04, 3.14, 3.14, 3.25, 2.91, 1.53, 1.53, 1.58, 1.58, 0.0, 0.0, 0.0, 0.0, 0.0, 0.0, 0.0, 0.0, 0.0, -1.34, -1.34, -1.34, -1.34, -1.3, -1.3, -2.56, -2.48, -2.4, -2.4, -2.32, -2.54, -2.45, -2.45, -2.62, -2.62, -2.52, -2.52, -2.42, -2.52, -2.52, -2.28, -2.28, -2.19, -2.19, -2.28, -3.34, -3.34, -3.21, -3.08, -3.25, -3.11, -3.11, -4.2, -4.0, -3.8, -3.8, -3.99, -3.77, -3.55, -3.55, -3.72, -3.47, -4.43, -4.89, -5.01, -5.37, -6.79, -7.15, -7.6, -8.38, -8.49, -8.05, -8.05, -8.94, -0.0, 0.0, 0.0, 0.0, 0.0, 1.84, 0.86, 0.78, 0.73, 0.71, 0.0, 0.0, -2.24, -7.9, -7.59, -4.2, -5.69, -8.06, -6.32, -0.0, -0.0, -0.0, 3.04, 3.04, 3.04, 3.04, 3.04, 3.14, 2.91, 1.53, 1.53, 1.53, 1.53, 0.0, 0.0, 0.0, 0.0, 0.0, 0.0, 0.0, 0.0, 0.0, 0.0, -1.34, -1.34, -1.34, -1.3, -1.3, -1.3, -1.25, -2.48, -2.4, -2.4, -2.54, -2.54, -2.45, -2.72, -2.62, -2.62, -2.52, -2.52, -2.42, -2.42, -2.52, -2.52, -2.19, -2.19, -2.1, -3.08, -3.08, -3.08, -3.08, -3.39, -3.25, -3.11, -3.11, -4.4, -4.2, -4.0, -4.44, -4.21, -3.77, -4.42, -4.16, -3.9, -4.29, -4.74, -4.74, -5.24, -5.37, -6.79, -6.79, -8.05, -8.06, -8.48, -8.67, -8.48, -8.49, -8.4, -9.83, -7.27, -3.25, -3.25, 0.0, 0.92, 1.57, 2.4, 1.6, 0.0, -0.89, -4.08, -8.73, -8.49, -5.95, -6.32, -6.32, -8.4, -8.49, -8.49, -8.49, 3.04, 3.04, 3.04, 3.04, 3.04, 1.55, 1.43, 1.48, 1.48, 1.48, 0.0, 0.0, 0.0, 0.0, 0.0, 0.0, 0.0, 0.0, 0.0, 0.0, -1.38, -1.38, -1.38, -1.34, -1.3, -1.3, -1.3, -1.25, -2.48, -2.4, -2.54, -2.54, -2.45, -2.45, -2.72, -2.62, -2.62, -2.52, -2.42, -2.42, -2.42, -2.42, -2.42, -2.19, -2.1, -2.1, -3.08, -2.1, -2.02, -2.02, -3.25, -3.25, -3.25, -3.99, -4.4, -4.2, -4.66, -5.2, -4.94, -4.68, -4.68, -4.42, -4.16, -4.29, -4.74, -5.15, -5.58, -5.75, -5.81, -6.8, -6.8, -8.05, -6.01, -6.32, -8.0, -8.94, -9.39, -9.83, -9.97, -8.55, -7.27, -3.39, -1.09, 0.0, 1.59, 1.56, 0.71, 0.0, -1.69, -10.08, -10.52, -10.18, 0.0, -8.4, -9.39, -9.39, -9.39, -9.39, 2.72, 2.72, 3.04, 2.72, 1.43, 1.43, 1.43, 1.43, 1.48, 0.0, 0.0, 0.0, 0.0, 0.0, 0.0, 0.0, 0.0, 0.0, 0.0, 0.0, -1.51, -1.38, -1.38, -1.34, -1.3, -1.3, -1.3, -1.25, -1.21, -2.63, -2.54, -2.45, -2.45, -2.45, -2.62, -2.62, -2.62, -2.52, -2.52, -2.42, -2.42, -2.42, -2.42, -2.42, -2.33, -2.1, -2.1, -2.02, -2.02, -2.02, -3.25, -3.25, -3.25, -3.99, -4.4, -4.4, -5.46, -5.2, -5.2, -5.53, -5.24, -4.95, -4.95, -5.06, -5.49, -5.49, -5.49, -5.95, -6.36, -6.94, -7.6, -7.6, -7.2, -6.7, -7.07, -8.94, -9.39, -9.83, -10.08, -9.2, -8.23, -6.42, -5.0, -2.72, -0.79, 0.0, 0.0, 0.79, 0.0, -2.69, -4.96, -7.27, -10.73, -10.28, -8.91, -9.11, -9.11, -9.11, 2.72, 2.72, 2.72, 1.38, 1.43, 1.43, 1.43, 1.48, 0.0, 0.0, 0.0, 0.0, 0.0, 0.0, 0.0, 0.0, 0.0, 0.0, 0.0, 0.0, -1.51, -1.51, -1.51, -1.47, -1.3, -1.3, -1.25, -1.25, -1.33, -2.54, -2.54, -2.45, -2.45, -2.62, -2.62, -2.62, -2.52, -2.52, -2.52, -2.42, -2.42, -2.42, -2.42, -2.33, -2.33, -2.33, -2.33, -2.02, -2.02, -2.02, -3.25, -3.11, -3.25, -3.99, -4.4, -4.4, -5.46, -5.46, -5.82, -5.53, -6.01, -5.69, -5.69, -5.37, -5.82, -5.82, -5.82, -6.21, -6.57, -7.45, -7.6, -7.6, -6.79, -6.8, -7.47, -8.94, -9.39, -9.11, -9.54, -9.54, -9.2, -7.27, -6.5, -4.81, -3.04, -1.62, 0.0, 0.0, 0.0, -0.0, -0.0, -0.0, -0.0, -0.0, -4.2, -6.64, -6.64, -6.64, 1.38, 1.38, 1.38, 1.38, 1.43, 1.43, 1.43, 0.0, 0.0, 0.0, 0.0, 0.0, 0.0, 0.0, 0.0, 0.0, 0.0, 0.0, 0.0, -1.47, -1.51, -1.51, -1.51, -1.51, -1.42, -1.38, -1.38, -1.38, -1.33, -2.54, -2.54, -2.45, -2.45, -2.62, -2.62, -2.62, -2.62, -2.52, -2.52, -2.42, -2.42, -2.42, -2.33, -2.33, -2.33, -2.33, -2.23, -2.23, -2.23, -3.25, -3.25, -3.11, -3.99, -3.99, -4.4, -4.2, -5.46, -5.46, -6.11, -5.82, -6.01, -6.01, -5.69, -5.37, -5.77, -5.82, -5.82, -6.18, -6.6, -6.79, -7.06, -7.6, -7.15, -6.94, -7.37, -8.33, -8.94, -9.39, -9.39, -9.83, -9.97, -8.58, -6.5, -5.99, -4.76, -3.18, -2.4, -0.69, 0.0, 0.0, 1.84, 1.93, 5.46, 6.95, 6.64, 0.0, 0.0, 0.0, 1.38, 1.38, 1.38, 1.38, 1.38, 1.43, 0.0, 0.0, 0.0, 0.0, 0.0, 0.0, 0.0, 0.0, 0.0, 0.0, 0.0, 0.0, -1.47, -1.47, -1.47, -1.51, -1.51, -1.47, -1.42, -1.38, -1.38, -1.33, -1.33, -2.54, -2.54, -2.45, -2.37, -2.62, -2.62, -2.62, -2.62, -2.52, -2.52, -3.68, -3.53, -3.53, -2.42, -2.33, -2.33, -2.33, -2.23, -2.23, -2.23, -3.25, -3.11, -3.99, -3.99, -3.99, -4.4, -4.98, -5.46, -5.82, -6.11, -6.32, -6.32, -6.39, -6.06, -6.06, -6.08, -6.44, -6.44, -6.44, -6.55, -6.99, -6.79, -7.81, -6.36, -7.6, -7.15, -8.05, -8.49, -9.39, -9.39, -9.83, -9.97, -8.38, -7.27, -6.72, -4.87, -3.83, -2.34, -0.8, 0.0, 0.0, 0.0, 2.28, 8.18, 9.39, 8.91, 7.44, 7.44, 7.44, 1.38, 1.38, 1.43, 1.43, 1.43, 0.0, 0.0, 0.0, 0.0, 0.0, 0.0, 0.0, 0.0, 0.0, 0.0, 0.0, 0.0, 0.0, -1.42, -1.47, -1.47, -1.47, -1.47, -1.47, -1.42, -1.38, -1.38, -1.33, -2.63, -2.54, -2.54, -2.45, -2.37, -2.62, -2.62, -2.52, -2.52, -3.68, -3.68, -3.53, -3.53, -3.53, -2.42, -2.33, -2.33, -2.33, -2.33, -2.23, -3.25, -3.25, -3.99, -3.99, -3.99, -3.99, -4.98, -4.98, -5.46, -5.82, -6.32, -6.32, -6.32, -6.39, -6.39, -6.06, -6.44, -6.44, -6.44, -6.82, -6.82, -6.8, -6.57, -6.36, -5.2, -5.37, -6.71, -7.6, -8.49, -9.39, -9.39, -9.83, -9.55, -8.93, -7.9, -6.92, -5.48, -3.75, -2.32, -0.78, 0.0, 0.0, 0.0, 0.0, 9.39, 8.48, 6.32, 5.36, 5.36, 5.36, 1.38, 1.38, 1.43, 1.43, 1.43, 0.0, 0.0, 0.0, 0.0, 0.0, 0.0, 0.0, 0.0, 0.0, 0.0, 0.0, 0.0, 0.0, -1.42, -1.47, -1.47, -1.47, -1.47, -1.47, -1.42, -1.38, -1.38, -1.33, -2.63, -2.54, -2.54, -2.45, -2.37, -2.62, -2.62, -2.52, -2.52, -3.68, -3.68, -3.53, -3.53, -3.53, -2.42, -2.33, -2.33, -2.33, -2.33, -2.23, -3.25, -3.25, -3.99, -3.99, -3.99, -3.99, -4.98, -4.98, -5.46, -5.82, -6.32, -6.32, -6.32, -6.39, -6.39, -6.06, -6.44, -6.44, -6.44, -6.82, -6.82, -6.8, -6.57, -6.36, -5.2, -5.37, -6.71, -7.6, -8.94, -9.39, -9.39, -9.83, -9.55, -8.93, -7.9, -6.67, -5.72, -4.55, -3.2, -1.54, 0.0, 0.0, 0.0, 0.0, 0.0, 2.97, 4.2, 3.49, 3.49, 3.49]}]